Wetterdaten: Dienstag, 27.12.2016
Datum Zeit Temp. A. Feuchte A. Luftdruck Regen Wind Richtung Richtung Sonnenschein ET UV Solar Taupunkt Windchill Windben Empfang
27.12.2016 00:00 5,7 C 83 % 1031,1 hPa 0,0 l/m 18,7 km/h (3 Bft) W-SW 242 0 min 0,000 mm 0,0 UV-I 0 W/m 3,0 C -1,8 C 29,0 km/h (5 Bft) 100,00 %
27.12.2016 00:02 5,7 C 82 % 1031,0 hPa 0,0 l/m 22,7 km/h (4 Bft) W 279 0 min 0,000 mm 0,0 UV-I 0 W/m 2,9 C -3,2 C 41,8 km/h (6 Bft) 100,00 %
27.12.2016 00:04 5,7 C 82 % 1031,0 hPa 0,0 l/m 17,9 km/h (3 Bft) W-SW 257 0 min 0,000 mm 0,0 UV-I 0 W/m 2,9 C -1,4 C 27,4 km/h (4 Bft) 100,00 %
27.12.2016 00:06 5,7 C 82 % 1031,0 hPa 0,0 l/m 21,6 km/h (4 Bft) W-NW 285 0 min 0,000 mm 0,0 UV-I 0 W/m 2,9 C -2,9 C 35,4 km/h (5 Bft) 100,00 %
27.12.2016 00:08 5,7 C 81 % 1031,2 hPa 0,0 l/m 20,7 km/h (4 Bft) W-SW 257 0 min 0,000 mm 0,0 UV-I 0 W/m 2,7 C -2,5 C 40,2 km/h (6 Bft) 100,00 %
27.12.2016 00:10 5,7 C 81 % 1031,3 hPa 0,0 l/m 15,2 km/h (3 Bft) W 279 0 min 0,000 mm 0,0 UV-I 0 W/m 2,7 C -0,2 C 22,5 km/h (4 Bft) 97,87 %
27.12.2016 00:12 5,6 C 81 % 1031,4 hPa 0,0 l/m 14,2 km/h (3 Bft) W 273 0 min 0,000 mm 0,0 UV-I 0 W/m 2,6 C 0,2 C 20,9 km/h (4 Bft) 100,00 %
27.12.2016 00:14 5,6 C 82 % 1031,4 hPa 0,0 l/m 12,0 km/h (2 Bft) W 260 0 min 0,000 mm 0,0 UV-I 0 W/m 2,8 C 1,4 C 20,9 km/h (4 Bft) 100,00 %
27.12.2016 00:16 5,6 C 81 % 1031,4 hPa 0,0 l/m 17,9 km/h (3 Bft) W 268 0 min 0,000 mm 0,0 UV-I 0 W/m 2,6 C -1,5 C 25,7 km/h (4 Bft) 100,00 %
27.12.2016 00:18 5,6 C 81 % 1031,5 hPa 0,0 l/m 14,1 km/h (3 Bft) W 263 0 min 0,000 mm 0,0 UV-I 0 W/m 2,6 C 0,3 C 27,4 km/h (4 Bft) 97,87 %
27.12.2016 00:20 5,5 C 80 % 1031,5 hPa 0,0 l/m 17,3 km/h (3 Bft) NW 311 0 min 0,000 mm 0,0 UV-I 0 W/m 2,3 C -1,4 C 38,6 km/h (5 Bft) 97,87 %
27.12.2016 00:22 5,5 C 79 % 1031,5 hPa 0,0 l/m 19,6 km/h (3 Bft) W-SW 249 0 min 0,000 mm 0,0 UV-I 0 W/m 2,2 C -2,4 C 35,4 km/h (5 Bft) 98,00 %
27.12.2016 00:24 5,5 C 79 % 1031,5 hPa 0,0 l/m 16,3 km/h (3 Bft) W 263 0 min 0,000 mm 0,0 UV-I 0 W/m 2,2 C -0,9 C 32,2 km/h (5 Bft) 100,00 %
27.12.2016 00:26 5,4 C 78 % 1031,5 hPa 0,0 l/m 14,0 km/h (3 Bft) W-NW 292 0 min 0,000 mm 0,0 UV-I 0 W/m 1,9 C 0,1 C 20,9 km/h (4 Bft) 97,87 %
27.12.2016 00:28 5,4 C 79 % 1031,5 hPa 0,0 l/m 10,7 km/h (2 Bft) W 269 0 min 0,000 mm 0,0 UV-I 0 W/m 2,1 C 2,0 C 14,5 km/h (3 Bft) 97,87 %
27.12.2016 00:30 5,3 C 78 % 1031,4 hPa 0,0 l/m 20,6 km/h (4 Bft) W 275 0 min 0,000 mm 0,0 UV-I 0 W/m 1,8 C -3,0 C 35,4 km/h (5 Bft) 100,00 %
27.12.2016 00:32 5,3 C 78 % 1031,4 hPa 0,0 l/m 14,6 km/h (3 Bft) W 264 0 min 0,000 mm 0,0 UV-I 0 W/m 1,8 C -0,4 C 22,5 km/h (4 Bft) 97,87 %
27.12.2016 00:34 5,3 C 78 % 1031,4 hPa 0,0 l/m 14,6 km/h (3 Bft) W 278 0 min 0,000 mm 0,0 UV-I 0 W/m 1,8 C -0,4 C 22,5 km/h (4 Bft) 100,00 %
27.12.2016 00:36 5,2 C 78 % 1031,4 hPa 0,0 l/m 21,7 km/h (4 Bft) W 278 0 min 0,000 mm 0,0 UV-I 0 W/m 1,7 C -3,6 C 41,8 km/h (6 Bft) 100,00 %
27.12.2016 00:38 5,2 C 79 % 1031,4 hPa 0,0 l/m 16,3 km/h (3 Bft) W 265 0 min 0,000 mm 0,0 UV-I 0 W/m 1,9 C -1,3 C 27,4 km/h (4 Bft) 97,87 %
27.12.2016 00:40 5,2 C 79 % 1031,4 hPa 0,0 l/m 17,5 km/h (3 Bft) W-NW 288 0 min 0,000 mm 0,0 UV-I 0 W/m 1,9 C -1,9 C 27,4 km/h (4 Bft) 100,00 %
27.12.2016 00:42 5,1 C 79 % 1031,5 hPa 0,0 l/m 19,1 km/h (3 Bft) W-SW 245 0 min 0,000 mm 0,0 UV-I 0 W/m 1,8 C -2,7 C 30,6 km/h (5 Bft) 97,87 %
27.12.2016 00:44 5,1 C 80 % 1031,4 hPa 0,0 l/m 12,3 km/h (3 Bft) W-NW 283 0 min 0,000 mm 0,0 UV-I 0 W/m 1,9 C 0,7 C 20,9 km/h (4 Bft) 98,11 %
27.12.2016 00:46 5,0 C 80 % 1031,4 hPa 0,0 l/m 13,1 km/h (3 Bft) W-NW 296 0 min 0,000 mm 0,0 UV-I 0 W/m 1,8 C 0,1 C 25,7 km/h (4 Bft) 97,87 %
27.12.2016 00:48 4,9 C 80 % 1031,4 hPa 0,0 l/m 13,8 km/h (3 Bft) W 271 0 min 0,000 mm 0,0 UV-I 0 W/m 1,7 C -0,4 C 19,3 km/h (3 Bft) 95,74 %
27.12.2016 00:50 4,9 C 81 % 1031,6 hPa 0,0 l/m 12,7 km/h (3 Bft) W 267 0 min 0,000 mm 0,0 UV-I 0 W/m 1,9 C 0,2 C 24,1 km/h (4 Bft) 97,87 %
27.12.2016 00:52 4,8 C 81 % 1031,6 hPa 0,0 l/m 6,9 km/h (2 Bft) W-NW 287 0 min 0,000 mm 0,0 UV-I 0 W/m 1,8 C 4,4 C 12,9 km/h (3 Bft) 97,87 %
27.12.2016 00:54 4,8 C 82 % 1031,6 hPa 0,0 l/m 9,8 km/h (2 Bft) W-SW 248 0 min 0,000 mm 0,0 UV-I 0 W/m 2,0 C 2,0 C 16,1 km/h (3 Bft) 95,74 %
27.12.2016 00:56 4,7 C 82 % 1031,6 hPa 0,0 l/m 8,8 km/h (2 Bft) W-NW 284 0 min 0,000 mm 0,0 UV-I 0 W/m 1,9 C 2,6 C 22,5 km/h (4 Bft) 97,87 %
27.12.2016 00:58 4,7 C 83 % 1031,8 hPa 0,0 l/m 8,0 km/h (2 Bft) W-NW 283 0 min 0,000 mm 0,0 UV-I 0 W/m 2,1 C 3,3 C 14,5 km/h (3 Bft) 94,74 %
27.12.2016 01:00 4,6 C 83 % 1031,7 hPa 0,0 l/m 6,5 km/h (2 Bft) NW 317 0 min 0,025 mm 0,0 UV-I 0 W/m 2,0 C 4,5 C 11,3 km/h (2 Bft) 95,74 %
27.12.2016 01:02 4,6 C 83 % 1031,9 hPa 0,0 l/m 6,4 km/h (2 Bft) W-SW 254 0 min 0,000 mm 0,0 UV-I 0 W/m 2,0 C 4,6 C 11,3 km/h (2 Bft) 91,49 %
27.12.2016 01:04 4,5 C 84 % 1031,8 hPa 0,0 l/m 6,5 km/h (2 Bft) W-SW 257 0 min 0,000 mm 0,0 UV-I 0 W/m 2,0 C 4,4 C 14,5 km/h (3 Bft) 97,87 %
27.12.2016 01:06 4,4 C 84 % 1032,0 hPa 0,0 l/m 7,5 km/h (2 Bft) W-SW 257 0 min 0,000 mm 0,0 UV-I 0 W/m 1,9 C 3,4 C 12,9 km/h (3 Bft) 93,62 %
27.12.2016 01:08 4,4 C 84 % 1031,9 hPa 0,0 l/m 16,8 km/h (3 Bft) W-SW 254 0 min 0,000 mm 0,0 UV-I 0 W/m 1,9 C -2,5 C 30,6 km/h (5 Bft) 97,92 %
27.12.2016 01:10 4,4 C 85 % 1031,9 hPa 0,0 l/m 14,2 km/h (3 Bft) W-SW 250 0 min 0,000 mm 0,0 UV-I 0 W/m 2,1 C -1,2 C 22,5 km/h (4 Bft) 97,87 %
27.12.2016 01:12 4,4 C 85 % 1031,9 hPa 0,0 l/m 11,2 km/h (2 Bft) W 277 0 min 0,000 mm 0,0 UV-I 0 W/m 2,1 C 0,6 C 20,9 km/h (4 Bft) 94,00 %
27.12.2016 01:14 4,4 C 85 % 1032,0 hPa 0,0 l/m 14,0 km/h (3 Bft) W 281 0 min 0,000 mm 0,0 UV-I 0 W/m 2,1 C -1,1 C 25,7 km/h (4 Bft) 96,00 %
27.12.2016 01:16 4,4 C 84 % 1032,1 hPa 0,0 l/m 13,9 km/h (3 Bft) W-SW 252 0 min 0,000 mm 0,0 UV-I 0 W/m 1,9 C -1,1 C 22,5 km/h (4 Bft) 95,74 %
27.12.2016 01:18 4,4 C 84 % 1032,2 hPa 0,0 l/m 16,4 km/h (3 Bft) S-SW 197 0 min 0,000 mm 0,0 UV-I 0 W/m 1,9 C -2,4 C 25,7 km/h (4 Bft) 97,87 %
27.12.2016 01:20 4,4 C 83 % 1032,3 hPa 0,0 l/m 16,7 km/h (3 Bft) W 273 0 min 0,000 mm 0,0 UV-I 0 W/m 1,8 C -2,5 C 24,1 km/h (4 Bft) 100,00 %
27.12.2016 01:22 4,4 C 83 % 1032,3 hPa 0,0 l/m 14,4 km/h (3 Bft) W-NW 284 0 min 0,000 mm 0,0 UV-I 0 W/m 1,8 C -1,3 C 29,0 km/h (5 Bft) 100,00 %
27.12.2016 01:24 4,4 C 83 % 1032,3 hPa 0,0 l/m 14,0 km/h (3 Bft) W-NW 290 0 min 0,000 mm 0,0 UV-I 0 W/m 1,8 C -1,1 C 29,0 km/h (5 Bft) 100,00 %
27.12.2016 01:26 4,3 C 82 % 1032,4 hPa 0,0 l/m 15,6 km/h (3 Bft) W 260 0 min 0,000 mm 0,0 UV-I 0 W/m 1,5 C -2,1 C 27,4 km/h (4 Bft) 97,87 %
27.12.2016 01:28 4,3 C 81 % 1032,4 hPa 0,0 l/m 15,5 km/h (3 Bft) W-NW 286 0 min 0,000 mm 0,0 UV-I 0 W/m 1,3 C -2,0 C 30,6 km/h (5 Bft) 97,87 %
27.12.2016 01:30 4,3 C 81 % 1032,3 hPa 0,0 l/m 9,8 km/h (2 Bft) W 277 0 min 0,000 mm 0,0 UV-I 0 W/m 1,3 C 1,4 C 22,5 km/h (4 Bft) 100,00 %
27.12.2016 01:32 4,2 C 80 % 1032,3 hPa 0,0 l/m 11,0 km/h (2 Bft) W-SW 255 0 min 0,000 mm 0,0 UV-I 0 W/m 1,1 C 0,5 C 20,9 km/h (4 Bft) 95,74 %
27.12.2016 01:34 4,2 C 80 % 1032,4 hPa 0,0 l/m 7,7 km/h (2 Bft) W 274 0 min 0,000 mm 0,0 UV-I 0 W/m 1,1 C 3,0 C 16,1 km/h (3 Bft) 98,00 %
27.12.2016 01:36 4,2 C 80 % 1032,3 hPa 0,0 l/m 12,2 km/h (2 Bft) W 273 0 min 0,000 mm 0,0 UV-I 0 W/m 1,1 C -0,3 C 20,9 km/h (4 Bft) 95,74 %
27.12.2016 01:38 4,2 C 80 % 1032,4 hPa 0,0 l/m 13,7 km/h (3 Bft) W-NW 287 0 min 0,000 mm 0,0 UV-I 0 W/m 1,1 C -1,2 C 24,1 km/h (4 Bft) 100,00 %
27.12.2016 01:40 4,2 C 80 % 1032,4 hPa 0,0 l/m 9,8 km/h (2 Bft) W 259 0 min 0,000 mm 0,0 UV-I 0 W/m 1,1 C 1,3 C 16,1 km/h (3 Bft) 100,00 %
27.12.2016 01:42 4,1 C 80 % 1032,5 hPa 0,0 l/m 10,7 km/h (2 Bft) W 267 0 min 0,000 mm 0,0 UV-I 0 W/m 1,0 C 0,6 C 19,3 km/h (3 Bft) 100,00 %
27.12.2016 01:44 4,1 C 79 % 1032,6 hPa 0,0 l/m 12,8 km/h (3 Bft) W 271 0 min 0,000 mm 0,0 UV-I 0 W/m 0,8 C -0,8 C 19,3 km/h (3 Bft) 100,00 %
27.12.2016 01:46 4,1 C 80 % 1032,6 hPa 0,0 l/m 7,4 km/h (2 Bft) W-SW 257 0 min 0,000 mm 0,0 UV-I 0 W/m 1,0 C 3,2 C 16,1 km/h (3 Bft) 100,00 %
27.12.2016 01:48 4,1 C 79 % 1032,6 hPa 0,0 l/m 10,9 km/h (2 Bft) W 269 0 min 0,000 mm 0,0 UV-I 0 W/m 0,8 C 0,4 C 19,3 km/h (3 Bft) 100,00 %
27.12.2016 01:50 4,1 C 79 % 1032,6 hPa 0,0 l/m 15,9 km/h (3 Bft) W-NW 288 0 min 0,000 mm 0,0 UV-I 0 W/m 0,8 C -2,5 C 24,1 km/h (4 Bft) 100,00 %
27.12.2016 01:52 4,1 C 79 % 1032,6 hPa 0,0 l/m 10,7 km/h (2 Bft) W 272 0 min 0,000 mm 0,0 UV-I 0 W/m 0,8 C 0,6 C 17,7 km/h (3 Bft) 100,00 %
27.12.2016 01:54 4,0 C 80 % 1032,8 hPa 0,0 l/m 11,0 km/h (2 Bft) W 279 0 min 0,000 mm 0,0 UV-I 0 W/m 0,9 C 0,3 C 19,3 km/h (3 Bft) 100,00 %
27.12.2016 01:56 3,9 C 80 % 1032,8 hPa 0,0 l/m 11,9 km/h (2 Bft) W 271 0 min 0,000 mm 0,0 UV-I 0 W/m 0,8 C -0,4 C 17,7 km/h (3 Bft) 100,00 %
27.12.2016 01:58 3,9 C 81 % 1032,8 hPa 0,0 l/m 11,6 km/h (2 Bft) W-NW 294 0 min 0,000 mm 0,0 UV-I 0 W/m 0,9 C -0,3 C 20,9 km/h (4 Bft) 100,00 %
27.12.2016 02:00 3,9 C 81 % 1032,9 hPa 0,0 l/m 11,2 km/h (2 Bft) W-SW 255 0 min 0,026 mm 0,0 UV-I 0 W/m 0,9 C 0,0 C 16,1 km/h (3 Bft) 100,00 %
27.12.2016 02:02 3,8 C 82 % 1032,9 hPa 0,0 l/m 12,3 km/h (3 Bft) W 274 0 min 0,000 mm 0,0 UV-I 0 W/m 1,0 C -0,8 C 20,9 km/h (4 Bft) 100,00 %
27.12.2016 02:04 3,8 C 82 % 1032,9 hPa 0,0 l/m 14,3 km/h (3 Bft) W-SW 257 0 min 0,000 mm 0,0 UV-I 0 W/m 1,0 C -2,0 C 22,5 km/h (4 Bft) 100,00 %
27.12.2016 02:06 3,8 C 82 % 1033,1 hPa 0,0 l/m 15,9 km/h (3 Bft) W 261 0 min 0,000 mm 0,0 UV-I 0 W/m 1,0 C -2,8 C 24,1 km/h (4 Bft) 100,00 %
27.12.2016 02:08 3,8 C 81 % 1033,1 hPa 0,0 l/m 19,0 km/h (3 Bft) W 261 0 min 0,000 mm 0,0 UV-I 0 W/m 0,8 C -4,3 C 29,0 km/h (5 Bft) 97,87 %
27.12.2016 02:10 3,9 C 81 % 1033,1 hPa 0,0 l/m 15,9 km/h (3 Bft) SW 236 0 min 0,000 mm 0,0 UV-I 0 W/m 0,9 C -2,7 C 25,7 km/h (4 Bft) 100,00 %
27.12.2016 02:12 3,9 C 81 % 1033,1 hPa 0,0 l/m 13,1 km/h (3 Bft) W 259 0 min 0,000 mm 0,0 UV-I 0 W/m 0,9 C -1,2 C 24,1 km/h (4 Bft) 100,00 %
27.12.2016 02:14 3,9 C 81 % 1033,1 hPa 0,0 l/m 14,5 km/h (3 Bft) SW 226 0 min 0,000 mm 0,0 UV-I 0 W/m 0,9 C -2,0 C 22,5 km/h (4 Bft) 100,00 %
27.12.2016 02:16 3,9 C 81 % 1033,1 hPa 0,0 l/m 19,5 km/h (3 Bft) W-SW 240 0 min 0,000 mm 0,0 UV-I 0 W/m 0,9 C -4,4 C 27,4 km/h (4 Bft) 100,00 %
27.12.2016 02:18 3,9 C 81 % 1033,1 hPa 0,0 l/m 15,8 km/h (3 Bft) W-NW 284 0 min 0,000 mm 0,0 UV-I 0 W/m 0,9 C -2,7 C 22,5 km/h (4 Bft) 100,00 %
27.12.2016 02:20 3,8 C 81 % 1033,2 hPa 0,0 l/m 14,6 km/h (3 Bft) SW 227 0 min 0,000 mm 0,0 UV-I 0 W/m 0,8 C -2,2 C 22,5 km/h (4 Bft) 97,87 %
27.12.2016 02:22 3,8 C 80 % 1033,1 hPa 0,0 l/m 11,9 km/h (2 Bft) W 269 0 min 0,000 mm 0,0 UV-I 0 W/m 0,7 C -0,6 C 25,7 km/h (4 Bft) 97,87 %
27.12.2016 02:24 3,8 C 80 % 1033,2 hPa 0,0 l/m 12,3 km/h (3 Bft) W-NW 282 0 min 0,000 mm 0,0 UV-I 0 W/m 0,7 C -0,8 C 19,3 km/h (3 Bft) 97,87 %
27.12.2016 02:26 3,8 C 80 % 1033,2 hPa 0,0 l/m 11,8 km/h (2 Bft) W 263 0 min 0,000 mm 0,0 UV-I 0 W/m 0,7 C -0,5 C 17,7 km/h (3 Bft) 100,00 %
27.12.2016 02:28 3,8 C 80 % 1033,3 hPa 0,0 l/m 11,2 km/h (2 Bft) W 273 0 min 0,000 mm 0,0 UV-I 0 W/m 0,7 C -0,1 C 17,7 km/h (3 Bft) 100,00 %
27.12.2016 02:30 3,7 C 80 % 1033,3 hPa 0,0 l/m 10,5 km/h (2 Bft) W-SW 255 0 min 0,000 mm 0,0 UV-I 0 W/m 0,6 C 0,3 C 17,7 km/h (3 Bft) 100,00 %
27.12.2016 02:32 3,7 C 80 % 1033,3 hPa 0,0 l/m 14,5 km/h (3 Bft) W-SW 248 0 min 0,000 mm 0,0 UV-I 0 W/m 0,6 C -2,2 C 20,9 km/h (4 Bft) 100,00 %
27.12.2016 02:34 3,7 C 80 % 1033,2 hPa 0,0 l/m 11,5 km/h (2 Bft) W-SW 257 0 min 0,000 mm 0,0 UV-I 0 W/m 0,6 C -0,4 C 16,1 km/h (3 Bft) 95,74 %
27.12.2016 02:36 3,7 C 81 % 1033,2 hPa 0,0 l/m 12,4 km/h (3 Bft) W 261 0 min 0,000 mm 0,0 UV-I 0 W/m 0,7 C -1,0 C 16,1 km/h (3 Bft) 100,00 %
27.12.2016 02:38 3,6 C 81 % 1033,0 hPa 0,0 l/m 12,8 km/h (3 Bft) W-SW 242 0 min 0,000 mm 0,0 UV-I 0 W/m 0,7 C -1,4 C 17,7 km/h (3 Bft) 100,00 %
27.12.2016 02:40 3,6 C 81 % 1033,0 hPa 0,0 l/m 15,0 km/h (3 Bft) W-SW 245 0 min 0,000 mm 0,0 UV-I 0 W/m 0,7 C -2,6 C 27,4 km/h (4 Bft) 100,00 %
27.12.2016 02:42 3,6 C 81 % 1033,1 hPa 0,0 l/m 16,2 km/h (3 Bft) W-SW 237 0 min 0,000 mm 0,0 UV-I 0 W/m 0,7 C -3,2 C 25,7 km/h (4 Bft) 100,00 %
27.12.2016 02:44 3,6 C 81 % 1033,1 hPa 0,0 l/m 12,4 km/h (3 Bft) SW 223 0 min 0,000 mm 0,0 UV-I 0 W/m 0,7 C -1,1 C 16,1 km/h (3 Bft) 97,14 %
27.12.2016 02:46 3,6 C 81 % 1032,9 hPa 0,0 l/m 16,1 km/h (3 Bft) SW 220 0 min 0,000 mm 0,0 UV-I 0 W/m 0,7 C -3,2 C 22,5 km/h (4 Bft) 95,74 %
27.12.2016 02:48 3,6 C 81 % 1032,9 hPa 0,0 l/m 13,8 km/h (3 Bft) SW 236 0 min 0,000 mm 0,0 UV-I 0 W/m 0,7 C -2,0 C 22,5 km/h (4 Bft) 100,00 %
27.12.2016 02:50 3,6 C 82 % 1033,0 hPa 0,0 l/m 14,0 km/h (3 Bft) SW 225 0 min 0,000 mm 0,0 UV-I 0 W/m 0,8 C -2,1 C 20,9 km/h (4 Bft) 97,87 %
27.12.2016 02:52 3,5 C 82 % 1032,9 hPa 0,0 l/m 14,0 km/h (3 Bft) W 259 0 min 0,000 mm 0,0 UV-I 0 W/m 0,7 C -2,2 C 20,9 km/h (4 Bft) 96,00 %
27.12.2016 02:54 3,6 C 82 % 1033,0 hPa 0,0 l/m 16,0 km/h (3 Bft) W-SW 252 0 min 0,000 mm 0,0 UV-I 0 W/m 0,8 C -3,1 C 24,1 km/h (4 Bft) 97,87 %
27.12.2016 02:56 3,6 C 82 % 1033,1 hPa 0,0 l/m 16,4 km/h (3 Bft) W-SW 254 0 min 0,000 mm 0,0 UV-I 0 W/m 0,8 C -3,3 C 24,1 km/h (4 Bft) 96,08 %
27.12.2016 02:58 3,6 C 82 % 1033,1 hPa 0,0 l/m 17,5 km/h (3 Bft) W-SW 241 0 min 0,000 mm 0,0 UV-I 0 W/m 0,8 C -3,9 C 29,0 km/h (5 Bft) 95,74 %
27.12.2016 03:00 3,6 C 82 % 1033,1 hPa 0,0 l/m 16,9 km/h (3 Bft) W-SW 248 0 min 0,025 mm 0,0 UV-I 0 W/m 0,8 C -3,6 C 24,1 km/h (4 Bft) 95,74 %
27.12.2016 03:02 3,6 C 82 % 1033,0 hPa 0,0 l/m 13,5 km/h (3 Bft) W-SW 246 0 min 0,000 mm 0,0 UV-I 0 W/m 0,8 C -1,8 C 20,9 km/h (4 Bft) 97,87 %
27.12.2016 03:04 3,6 C 82 % 1033,1 hPa 0,0 l/m 17,1 km/h (3 Bft) SW 236 0 min 0,000 mm 0,0 UV-I 0 W/m 0,8 C -3,7 C 29,0 km/h (5 Bft) 97,87 %
27.12.2016 03:06 3,7 C 82 % 1033,1 hPa 0,0 l/m 13,8 km/h (3 Bft) W-SW 247 0 min 0,000 mm 0,0 UV-I 0 W/m 0,9 C -1,8 C 22,5 km/h (4 Bft) 97,92 %
27.12.2016 03:08 3,7 C 82 % 1033,1 hPa 0,0 l/m 20,1 km/h (4 Bft) W-SW 244 0 min 0,000 mm 0,0 UV-I 0 W/m 0,9 C -4,9 C 29,0 km/h (5 Bft) 97,87 %
27.12.2016 03:10 3,7 C 82 % 1033,1 hPa 0,0 l/m 15,9 km/h (3 Bft) W-SW 253 0 min 0,000 mm 0,0 UV-I 0 W/m 0,9 C -3,0 C 24,1 km/h (4 Bft) 97,87 %
27.12.2016 03:12 3,7 C 82 % 1033,1 hPa 0,0 l/m 17,4 km/h (3 Bft) W 264 0 min 0,000 mm 0,0 UV-I 0 W/m 0,9 C -3,7 C 29,0 km/h (5 Bft) 97,22 %
27.12.2016 03:14 3,7 C 82 % 1033,1 hPa 0,0 l/m 15,0 km/h (3 Bft) W 279 0 min 0,000 mm 0,0 UV-I 0 W/m 0,9 C -2,5 C 22,5 km/h (4 Bft) 96,00 %
27.12.2016 03:16 3,7 C 82 % 1033,2 hPa 0,0 l/m 12,1 km/h (2 Bft) W-SW 253 0 min 0,000 mm 0,0 UV-I 0 W/m 0,9 C -0,8 C 17,7 km/h (3 Bft) 95,74 %
27.12.2016 03:18 3,7 C 82 % 1033,2 hPa 0,0 l/m 16,3 km/h (3 Bft) W 268 0 min 0,000 mm 0,0 UV-I 0 W/m 0,9 C -3,2 C 25,7 km/h (4 Bft) 97,87 %
27.12.2016 03:20 3,8 C 81 % 1033,3 hPa 0,0 l/m 22,4 km/h (4 Bft) W 278 0 min 0,000 mm 0,0 UV-I 0 W/m 0,8 C -5,7 C 41,8 km/h (6 Bft) 97,87 %
27.12.2016 03:22 3,8 C 81 % 1033,2 hPa 0,0 l/m 16,8 km/h (3 Bft) SW 227 0 min 0,000 mm 0,0 UV-I 0 W/m 0,8 C -3,3 C 22,5 km/h (4 Bft) 95,74 %
27.12.2016 03:24 3,8 C 81 % 1033,1 hPa 0,0 l/m 18,1 km/h (3 Bft) SW 226 0 min 0,000 mm 0,0 UV-I 0 W/m 0,8 C -3,9 C 27,4 km/h (4 Bft) 95,74 %
27.12.2016 03:26 3,8 C 81 % 1033,2 hPa 0,0 l/m 18,7 km/h (3 Bft) W-SW 238 0 min 0,000 mm 0,0 UV-I 0 W/m 0,8 C -4,2 C 25,7 km/h (4 Bft) 98,00 %
27.12.2016 03:28 3,8 C 81 % 1033,1 hPa 0,0 l/m 16,8 km/h (3 Bft) W-SW 253 0 min 0,000 mm 0,0 UV-I 0 W/m 0,8 C -3,3 C 27,4 km/h (4 Bft) 97,87 %
27.12.2016 03:30 3,8 C 80 % 1033,1 hPa 0,0 l/m 16,1 km/h (3 Bft) W-SW 244 0 min 0,000 mm 0,0 UV-I 0 W/m 0,7 C -2,9 C 29,0 km/h (5 Bft) 97,87 %
27.12.2016 03:32 3,8 C 81 % 1033,1 hPa 0,0 l/m 14,0 km/h (3 Bft) W 261 0 min 0,000 mm 0,0 UV-I 0 W/m 0,8 C -1,8 C 25,7 km/h (4 Bft) 95,74 %
27.12.2016 03:34 3,8 C 80 % 1033,1 hPa 0,0 l/m 17,9 km/h (3 Bft) W-SW 246 0 min 0,000 mm 0,0 UV-I 0 W/m 0,7 C -3,8 C 25,7 km/h (4 Bft) 97,87 %
27.12.2016 03:36 3,8 C 80 % 1033,1 hPa 0,0 l/m 18,4 km/h (3 Bft) W 279 0 min 0,000 mm 0,0 UV-I 0 W/m 0,7 C -4,0 C 30,6 km/h (5 Bft) 100,00 %
27.12.2016 03:38 3,8 C 80 % 1033,1 hPa 0,0 l/m 19,9 km/h (4 Bft) W-SW 251 0 min 0,000 mm 0,0 UV-I 0 W/m 0,7 C -4,7 C 25,7 km/h (4 Bft) 95,74 %
27.12.2016 03:40 3,8 C 80 % 1033,1 hPa 0,0 l/m 20,3 km/h (4 Bft) W-SW 242 0 min 0,000 mm 0,0 UV-I 0 W/m 0,7 C -4,8 C 32,2 km/h (5 Bft) 100,00 %
27.12.2016 03:42 3,8 C 80 % 1033,1 hPa 0,0 l/m 20,4 km/h (4 Bft) W-SW 254 0 min 0,000 mm 0,0 UV-I 0 W/m 0,7 C -4,9 C 30,6 km/h (5 Bft) 97,87 %
27.12.2016 03:44 3,9 C 80 % 1033,1 hPa 0,0 l/m 18,3 km/h (3 Bft) W-SW 240 0 min 0,000 mm 0,0 UV-I 0 W/m 0,8 C -3,9 C 27,4 km/h (4 Bft) 100,00 %
27.12.2016 03:46 3,9 C 80 % 1033,1 hPa 0,0 l/m 17,4 km/h (3 Bft) W 259 0 min 0,000 mm 0,0 UV-I 0 W/m 0,8 C -3,5 C 24,1 km/h (4 Bft) 100,00 %
27.12.2016 03:48 3,9 C 80 % 1033,1 hPa 0,0 l/m 15,3 km/h (3 Bft) W-SW 254 0 min 0,000 mm 0,0 UV-I 0 W/m 0,8 C -2,4 C 29,0 km/h (5 Bft) 97,87 %
27.12.2016 03:50 3,8 C 80 % 1033,1 hPa 0,0 l/m 11,7 km/h (2 Bft) SW 234 0 min 0,000 mm 0,0 UV-I 0 W/m 0,7 C -0,4 C 17,7 km/h (3 Bft) 100,00 %
27.12.2016 03:52 3,8 C 81 % 1033,1 hPa 0,0 l/m 15,0 km/h (3 Bft) W-SW 257 0 min 0,000 mm 0,0 UV-I 0 W/m 0,8 C -2,4 C 24,1 km/h (4 Bft) 97,87 %
27.12.2016 03:54 3,8 C 81 % 1033,1 hPa 0,0 l/m 15,0 km/h (3 Bft) W-SW 250 0 min 0,000 mm 0,0 UV-I 0 W/m 0,8 C -2,4 C 22,5 km/h (4 Bft) 97,87 %
27.12.2016 03:56 3,8 C 80 % 1033,1 hPa 0,0 l/m 14,9 km/h (3 Bft) W 265 0 min 0,000 mm 0,0 UV-I 0 W/m 0,7 C -2,3 C 25,7 km/h (4 Bft) 100,00 %
27.12.2016 03:58 3,8 C 80 % 1033,0 hPa 0,0 l/m 17,8 km/h (3 Bft) SW 232 0 min 0,000 mm 0,0 UV-I 0 W/m 0,7 C -3,8 C 27,4 km/h (4 Bft) 100,00 %
27.12.2016 04:00 3,8 C 80 % 1033,1 hPa 0,0 l/m 19,2 km/h (3 Bft) W-SW 246 0 min 0,026 mm 0,0 UV-I 0 W/m 0,7 C -4,4 C 30,6 km/h (5 Bft) 100,00 %
27.12.2016 04:02 3,8 C 79 % 1033,1 hPa 0,0 l/m 17,7 km/h (3 Bft) SW 232 0 min 0,000 mm 0,0 UV-I 0 W/m 0,5 C -3,7 C 33,8 km/h (5 Bft) 100,00 %
27.12.2016 04:04 3,8 C 79 % 1032,9 hPa 0,0 l/m 20,9 km/h (4 Bft) W 275 0 min 0,000 mm 0,0 UV-I 0 W/m 0,5 C -5,1 C 29,0 km/h (5 Bft) 100,00 %
27.12.2016 04:06 3,8 C 79 % 1032,9 hPa 0,0 l/m 19,1 km/h (3 Bft) W-SW 255 0 min 0,000 mm 0,0 UV-I 0 W/m 0,5 C -4,3 C 29,0 km/h (5 Bft) 100,00 %
27.12.2016 04:08 3,8 C 78 % 1032,9 hPa 0,0 l/m 20,4 km/h (4 Bft) W-SW 251 0 min 0,000 mm 0,0 UV-I 0 W/m 0,3 C -4,9 C 30,6 km/h (5 Bft) 100,00 %
27.12.2016 04:10 3,8 C 77 % 1033,0 hPa 0,0 l/m 22,2 km/h (4 Bft) W-SW 255 0 min 0,000 mm 0,0 UV-I 0 W/m 0,1 C -5,6 C 37,0 km/h (5 Bft) 100,00 %
27.12.2016 04:12 3,8 C 76 % 1033,0 hPa 0,0 l/m 20,3 km/h (4 Bft) W-SW 257 0 min 0,000 mm 0,0 UV-I 0 W/m -0,0 C -4,8 C 29,0 km/h (5 Bft) 100,00 %
27.12.2016 04:14 3,8 C 76 % 1033,1 hPa 0,0 l/m 14,2 km/h (3 Bft) W 267 0 min 0,000 mm 0,0 UV-I 0 W/m -0,0 C -1,9 C 27,4 km/h (4 Bft) 98,00 %
27.12.2016 04:16 3,8 C 76 % 1033,1 hPa 0,0 l/m 18,0 km/h (3 Bft) W-SW 248 0 min 0,000 mm 0,0 UV-I 0 W/m -0,0 C -3,9 C 29,0 km/h (5 Bft) 100,00 %
27.12.2016 04:18 3,8 C 76 % 1033,1 hPa 0,0 l/m 16,9 km/h (3 Bft) W-SW 246 0 min 0,000 mm 0,0 UV-I 0 W/m -0,0 C -3,3 C 30,6 km/h (5 Bft) 97,87 %
27.12.2016 04:20 3,8 C 76 % 1033,1 hPa 0,0 l/m 21,6 km/h (4 Bft) W-NW 294 0 min 0,000 mm 0,0 UV-I 0 W/m -0,0 C -5,4 C 33,8 km/h (5 Bft) 100,00 %
27.12.2016 04:22 3,8 C 76 % 1033,1 hPa 0,0 l/m 19,7 km/h (3 Bft) W-SW 258 0 min 0,000 mm 0,0 UV-I 0 W/m -0,0 C -4,6 C 32,2 km/h (5 Bft) 97,87 %
27.12.2016 04:24 3,8 C 77 % 1033,1 hPa 0,0 l/m 22,7 km/h (4 Bft) W-SW 248 0 min 0,000 mm 0,0 UV-I 0 W/m 0,1 C -5,8 C 35,4 km/h (5 Bft) 98,00 %
27.12.2016 04:26 3,8 C 77 % 1033,1 hPa 0,0 l/m 18,8 km/h (3 Bft) W-SW 248 0 min 0,000 mm 0,0 UV-I 0 W/m 0,1 C -4,2 C 32,2 km/h (5 Bft) 97,22 %
27.12.2016 04:28 3,8 C 77 % 1033,1 hPa 0,0 l/m 14,9 km/h (3 Bft) SW 234 0 min 0,000 mm 0,0 UV-I 0 W/m 0,1 C -2,3 C 30,6 km/h (5 Bft) 98,00 %
27.12.2016 04:30 3,7 C 77 % 1033,1 hPa 0,0 l/m 16,4 km/h (3 Bft) W 275 0 min 0,000 mm 0,0 UV-I 0 W/m 0,1 C -3,2 C 29,0 km/h (5 Bft) 100,00 %
27.12.2016 04:32 3,7 C 78 % 1033,2 hPa 0,0 l/m 13,7 km/h (3 Bft) W 281 0 min 0,000 mm 0,0 UV-I 0 W/m 0,2 C -1,8 C 19,3 km/h (3 Bft) 97,87 %
27.12.2016 04:34 3,7 C 79 % 1033,2 hPa 0,0 l/m 14,8 km/h (3 Bft) W-SW 257 0 min 0,000 mm 0,0 UV-I 0 W/m 0,4 C -2,4 C 29,0 km/h (5 Bft) 100,00 %
27.12.2016 04:36 3,7 C 79 % 1033,2 hPa 0,0 l/m 18,0 km/h (3 Bft) W 271 0 min 0,000 mm 0,0 UV-I 0 W/m 0,4 C -4,0 C 27,4 km/h (4 Bft) 100,00 %
27.12.2016 04:38 3,7 C 79 % 1033,1 hPa 0,0 l/m 15,8 km/h (3 Bft) W-SW 240 0 min 0,000 mm 0,0 UV-I 0 W/m 0,4 C -2,9 C 24,1 km/h (4 Bft) 100,00 %
27.12.2016 04:40 3,7 C 79 % 1033,1 hPa 0,0 l/m 19,9 km/h (4 Bft) W-NW 288 0 min 0,000 mm 0,0 UV-I 0 W/m 0,4 C -4,8 C 35,4 km/h (5 Bft) 97,87 %
27.12.2016 04:42 3,6 C 79 % 1033,1 hPa 0,0 l/m 20,4 km/h (4 Bft) W 266 0 min 0,000 mm 0,0 UV-I 0 W/m 0,3 C -5,1 C 33,8 km/h (5 Bft) 100,00 %
27.12.2016 04:44 3,6 C 79 % 1033,1 hPa 0,0 l/m 19,8 km/h (3 Bft) W 264 0 min 0,000 mm 0,0 UV-I 0 W/m 0,3 C -4,9 C 37,0 km/h (5 Bft) 95,74 %
27.12.2016 04:46 3,6 C 79 % 1033,2 hPa 0,0 l/m 17,5 km/h (3 Bft) W-SW 240 0 min 0,000 mm 0,0 UV-I 0 W/m 0,3 C -3,9 C 25,7 km/h (4 Bft) 100,00 %
27.12.2016 04:48 3,6 C 79 % 1033,2 hPa 0,0 l/m 18,9 km/h (3 Bft) W-SW 257 0 min 0,000 mm 0,0 UV-I 0 W/m 0,3 C -4,5 C 30,6 km/h (5 Bft) 97,87 %
27.12.2016 04:50 3,6 C 79 % 1033,2 hPa 0,0 l/m 22,6 km/h (4 Bft) W-SW 246 0 min 0,000 mm 0,0 UV-I 0 W/m 0,3 C -6,0 C 32,2 km/h (5 Bft) 100,00 %
27.12.2016 04:52 3,6 C 79 % 1033,2 hPa 0,0 l/m 17,8 km/h (3 Bft) W 260 0 min 0,000 mm 0,0 UV-I 0 W/m 0,3 C -4,0 C 30,6 km/h (5 Bft) 97,87 %
27.12.2016 04:54 3,6 C 79 % 1033,2 hPa 0,0 l/m 20,1 km/h (4 Bft) W-SW 253 0 min 0,000 mm 0,0 UV-I 0 W/m 0,3 C -5,0 C 37,0 km/h (5 Bft) 100,00 %
27.12.2016 04:56 3,5 C 79 % 1033,2 hPa 0,0 l/m 16,4 km/h (3 Bft) W 275 0 min 0,000 mm 0,0 UV-I 0 W/m 0,2 C -3,5 C 25,7 km/h (4 Bft) 100,00 %
27.12.2016 04:58 3,5 C 79 % 1033,2 hPa 0,0 l/m 14,2 km/h (3 Bft) W 265 0 min 0,000 mm 0,0 UV-I 0 W/m 0,2 C -2,3 C 22,5 km/h (4 Bft) 89,36 %
27.12.2016 05:00 3,4 C 79 % 1033,2 hPa 0,0 l/m 17,0 km/h (3 Bft) W-SW 237 0 min 0,025 mm 0,0 UV-I 0 W/m 0,1 C -3,9 C 24,1 km/h (4 Bft) 97,87 %
27.12.2016 05:02 3,4 C 79 % 1033,2 hPa 0,0 l/m 17,1 km/h (3 Bft) W-NW 293 0 min 0,000 mm 0,0 UV-I 0 W/m 0,1 C -3,9 C 27,4 km/h (4 Bft) 95,74 %
27.12.2016 05:04 3,4 C 79 % 1033,3 hPa 0,0 l/m 22,1 km/h (4 Bft) W 262 0 min 0,000 mm 0,0 UV-I 0 W/m 0,1 C -6,1 C 32,2 km/h (5 Bft) 97,87 %
27.12.2016 05:06 3,4 C 79 % 1033,3 hPa 0,0 l/m 17,4 km/h (3 Bft) W 273 0 min 0,000 mm 0,0 UV-I 0 W/m 0,1 C -4,1 C 32,2 km/h (5 Bft) 95,74 %
27.12.2016 05:08 3,4 C 79 % 1033,4 hPa 0,0 l/m 13,0 km/h (3 Bft) W 263 0 min 0,000 mm 0,0 UV-I 0 W/m 0,1 C -1,7 C 22,5 km/h (4 Bft) 97,87 %
27.12.2016 05:10 3,3 C 79 % 1033,4 hPa 0,0 l/m 14,7 km/h (3 Bft) W 263 0 min 0,000 mm 0,0 UV-I 0 W/m 0,0 C -2,8 C 25,7 km/h (4 Bft) 95,83 %
27.12.2016 05:12 3,3 C 79 % 1033,4 hPa 0,0 l/m 17,1 km/h (3 Bft) W-SW 255 0 min 0,000 mm 0,0 UV-I 0 W/m 0,0 C -4,1 C 25,7 km/h (4 Bft) 95,74 %
27.12.2016 05:14 3,3 C 79 % 1033,4 hPa 0,0 l/m 16,0 km/h (3 Bft) W 265 0 min 0,000 mm 0,0 UV-I 0 W/m 0,0 C -3,5 C 24,1 km/h (4 Bft) 95,74 %
27.12.2016 05:16 3,3 C 79 % 1033,6 hPa 0,0 l/m 17,5 km/h (3 Bft) W 265 0 min 0,000 mm 0,0 UV-I 0 W/m 0,0 C -4,3 C 24,1 km/h (4 Bft) 97,87 %
27.12.2016 05:18 3,3 C 79 % 1033,5 hPa 0,0 l/m 9,8 km/h (2 Bft) W 268 0 min 0,000 mm 0,0 UV-I 0 W/m 0,0 C 0,3 C 16,1 km/h (3 Bft) 97,87 %
27.12.2016 05:20 3,3 C 79 % 1033,5 hPa 0,0 l/m 11,5 km/h (2 Bft) W-SW 255 0 min 0,000 mm 0,0 UV-I 0 W/m 0,0 C -0,9 C 19,3 km/h (3 Bft) 95,74 %
27.12.2016 05:22 3,3 C 79 % 1033,6 hPa 0,0 l/m 12,8 km/h (3 Bft) W-SW 257 0 min 0,000 mm 0,0 UV-I 0 W/m 0,0 C -1,7 C 24,1 km/h (4 Bft) 97,87 %
27.12.2016 05:24 3,3 C 79 % 1033,6 hPa 0,0 l/m 13,6 km/h (3 Bft) W 271 0 min 0,000 mm 0,0 UV-I 0 W/m 0,0 C -2,2 C 24,1 km/h (4 Bft) 92,11 %
27.12.2016 05:26 3,3 C 79 % 1033,7 hPa 0,0 l/m 8,6 km/h (2 Bft) W-SW 250 0 min 0,000 mm 0,0 UV-I 0 W/m 0,0 C 1,3 C 11,3 km/h (2 Bft) 95,74 %
27.12.2016 05:28 3,3 C 80 % 1033,7 hPa 0,0 l/m 12,6 km/h (3 Bft) W 279 0 min 0,000 mm 0,0 UV-I 0 W/m 0,2 C -1,6 C 19,3 km/h (3 Bft) 97,87 %
27.12.2016 05:30 3,3 C 80 % 1033,7 hPa 0,0 l/m 14,2 km/h (3 Bft) W 259 0 min 0,000 mm 0,0 UV-I 0 W/m 0,2 C -2,5 C 20,9 km/h (4 Bft) 97,87 %
27.12.2016 05:32 3,2 C 80 % 1033,7 hPa 0,0 l/m 14,2 km/h (3 Bft) W 260 0 min 0,000 mm 0,0 UV-I 0 W/m 0,1 C -2,7 C 24,1 km/h (4 Bft) 97,87 %
27.12.2016 05:34 3,2 C 80 % 1033,8 hPa 0,0 l/m 15,4 km/h (3 Bft) W-SW 250 0 min 0,000 mm 0,0 UV-I 0 W/m 0,1 C -3,3 C 20,9 km/h (4 Bft) 97,87 %
27.12.2016 05:36 3,2 C 80 % 1033,8 hPa 0,0 l/m 12,9 km/h (3 Bft) NW 304 0 min 0,000 mm 0,0 UV-I 0 W/m 0,1 C -1,9 C 19,3 km/h (3 Bft) 100,00 %
27.12.2016 05:38 3,2 C 80 % 1033,8 hPa 0,0 l/m 12,2 km/h (2 Bft) W-SW 244 0 min 0,000 mm 0,0 UV-I 0 W/m 0,1 C -1,4 C 20,9 km/h (4 Bft) 97,87 %
27.12.2016 05:40 3,3 C 80 % 1033,7 hPa 0,0 l/m 14,7 km/h (3 Bft) W 260 0 min 0,000 mm 0,0 UV-I 0 W/m 0,2 C -2,8 C 19,3 km/h (3 Bft) 100,00 %
27.12.2016 05:42 3,2 C 80 % 1033,7 hPa 0,0 l/m 13,2 km/h (3 Bft) W 267 0 min 0,000 mm 0,0 UV-I 0 W/m 0,1 C -2,1 C 17,7 km/h (3 Bft) 100,00 %
27.12.2016 05:44 3,3 C 80 % 1033,8 hPa 0,0 l/m 14,6 km/h (3 Bft) W-SW 248 0 min 0,000 mm 0,0 UV-I 0 W/m 0,2 C -2,8 C 19,3 km/h (3 Bft) 100,00 %
27.12.2016 05:46 3,2 C 80 % 1033,6 hPa 0,0 l/m 18,4 km/h (3 Bft) W 265 0 min 0,000 mm 0,0 UV-I 0 W/m 0,1 C -4,8 C 27,4 km/h (4 Bft) 97,87 %
27.12.2016 05:48 3,2 C 80 % 1033,7 hPa 0,0 l/m 17,0 km/h (3 Bft) W-SW 252 0 min 0,000 mm 0,0 UV-I 0 W/m 0,1 C -4,1 C 24,1 km/h (4 Bft) 100,00 %
27.12.2016 05:50 3,2 C 80 % 1033,7 hPa 0,0 l/m 16,9 km/h (3 Bft) SW 233 0 min 0,000 mm 0,0 UV-I 0 W/m 0,1 C -4,1 C 24,1 km/h (4 Bft) 97,87 %
27.12.2016 05:52 3,2 C 80 % 1033,7 hPa 0,0 l/m 18,6 km/h (3 Bft) W-SW 251 0 min 0,000 mm 0,0 UV-I 0 W/m 0,1 C -4,9 C 25,7 km/h (4 Bft) 100,00 %
27.12.2016 05:54 3,2 C 80 % 1033,7 hPa 0,0 l/m 18,9 km/h (3 Bft) W-SW 238 0 min 0,000 mm 0,0 UV-I 0 W/m 0,1 C -5,0 C 29,0 km/h (5 Bft) 97,87 %
27.12.2016 05:56 3,2 C 80 % 1033,6 hPa 0,0 l/m 17,2 km/h (3 Bft) W-SW 241 0 min 0,000 mm 0,0 UV-I 0 W/m 0,1 C -4,2 C 24,1 km/h (4 Bft) 96,00 %
27.12.2016 05:58 3,2 C 80 % 1033,7 hPa 0,0 l/m 18,5 km/h (3 Bft) SW 229 0 min 0,000 mm 0,0 UV-I 0 W/m 0,1 C -4,8 C 24,1 km/h (4 Bft) 100,00 %
27.12.2016 06:00 3,2 C 80 % 1033,8 hPa 0,0 l/m 16,5 km/h (3 Bft) SW 229 0 min 0,025 mm 0,0 UV-I 0 W/m 0,1 C -3,9 C 27,4 km/h (4 Bft) 100,00 %
27.12.2016 06:02 3,2 C 79 % 1033,9 hPa 0,0 l/m 19,8 km/h (3 Bft) W 261 0 min 0,000 mm 0,0 UV-I 0 W/m -0,1 C -5,4 C 32,2 km/h (5 Bft) 97,87 %
27.12.2016 06:04 3,2 C 80 % 1033,9 hPa 0,0 l/m 16,9 km/h (3 Bft) W 267 0 min 0,000 mm 0,0 UV-I 0 W/m 0,1 C -4,1 C 25,7 km/h (4 Bft) 100,00 %
27.12.2016 06:06 3,2 C 79 % 1033,9 hPa 0,0 l/m 19,9 km/h (4 Bft) SW 231 0 min 0,000 mm 0,0 UV-I 0 W/m -0,1 C -5,5 C 33,8 km/h (5 Bft) 100,00 %
27.12.2016 06:08 3,2 C 79 % 1034,1 hPa 0,0 l/m 16,0 km/h (3 Bft) W-NW 290 0 min 0,000 mm 0,0 UV-I 0 W/m -0,1 C -3,6 C 24,1 km/h (4 Bft) 100,00 %
27.12.2016 06:10 3,2 C 79 % 1034,0 hPa 0,0 l/m 20,3 km/h (4 Bft) W-NW 290 0 min 0,000 mm 0,0 UV-I 0 W/m -0,1 C -5,6 C 33,8 km/h (5 Bft) 100,00 %
27.12.2016 06:12 3,2 C 78 % 1034,0 hPa 0,0 l/m 16,7 km/h (3 Bft) W 276 0 min 0,000 mm 0,0 UV-I 0 W/m -0,3 C -4,0 C 27,4 km/h (4 Bft) 100,00 %
27.12.2016 06:14 3,2 C 79 % 1034,0 hPa 0,0 l/m 16,2 km/h (3 Bft) W-SW 237 0 min 0,000 mm 0,0 UV-I 0 W/m -0,1 C -3,7 C 25,7 km/h (4 Bft) 97,87 %
27.12.2016 06:16 3,2 C 78 % 1034,1 hPa 0,0 l/m 16,6 km/h (3 Bft) W-NW 289 0 min 0,000 mm 0,0 UV-I 0 W/m -0,3 C -3,9 C 25,7 km/h (4 Bft) 97,87 %
27.12.2016 06:18 3,2 C 78 % 1034,1 hPa 0,0 l/m 15,5 km/h (3 Bft) W-SW 255 0 min 0,000 mm 0,0 UV-I 0 W/m -0,3 C -3,4 C 27,4 km/h (4 Bft) 100,00 %
27.12.2016 06:20 3,2 C 78 % 1034,1 hPa 0,0 l/m 15,5 km/h (3 Bft) W-SW 257 0 min 0,000 mm 0,0 UV-I 0 W/m -0,3 C -3,4 C 20,9 km/h (4 Bft) 97,92 %
27.12.2016 06:22 3,2 C 79 % 1034,1 hPa 0,0 l/m 13,6 km/h (3 Bft) W 259 0 min 0,000 mm 0,0 UV-I 0 W/m -0,1 C -2,3 C 25,7 km/h (4 Bft) 100,00 %
27.12.2016 06:24 3,1 C 79 % 1034,2 hPa 0,0 l/m 12,2 km/h (2 Bft) W-SW 253 0 min 0,000 mm 0,0 UV-I 0 W/m -0,2 C -1,6 C 19,3 km/h (3 Bft) 100,00 %
27.12.2016 06:26 3,1 C 79 % 1034,3 hPa 0,0 l/m 18,8 km/h (3 Bft) W 273 0 min 0,000 mm 0,0 UV-I 0 W/m -0,2 C -5,1 C 27,4 km/h (4 Bft) 100,00 %
27.12.2016 06:28 3,1 C 79 % 1034,3 hPa 0,0 l/m 17,9 km/h (3 Bft) W 260 0 min 0,000 mm 0,0 UV-I 0 W/m -0,2 C -4,7 C 27,4 km/h (4 Bft) 97,14 %
27.12.2016 06:30 3,1 C 79 % 1034,3 hPa 0,0 l/m 15,1 km/h (3 Bft) W 265 0 min 0,000 mm 0,0 UV-I 0 W/m -0,2 C -3,3 C 22,5 km/h (4 Bft) 100,00 %
27.12.2016 06:32 3,1 C 80 % 1034,3 hPa 0,0 l/m 18,3 km/h (3 Bft) W-NW 290 0 min 0,000 mm 0,0 UV-I 0 W/m -0,0 C -4,9 C 29,0 km/h (5 Bft) 100,00 %
27.12.2016 06:34 3,1 C 79 % 1034,3 hPa 0,0 l/m 19,0 km/h (3 Bft) W-SW 258 0 min 0,000 mm 0,0 UV-I 0 W/m -0,2 C -5,2 C 29,0 km/h (5 Bft) 100,00 %
27.12.2016 06:36 3,1 C 79 % 1034,2 hPa 0,0 l/m 17,8 km/h (3 Bft) W-SW 257 0 min 0,000 mm 0,0 UV-I 0 W/m -0,2 C -4,6 C 25,7 km/h (4 Bft) 100,00 %
27.12.2016 06:38 3,1 C 79 % 1034,4 hPa 0,0 l/m 13,8 km/h (3 Bft) W 265 0 min 0,000 mm 0,0 UV-I 0 W/m -0,2 C -2,5 C 25,7 km/h (4 Bft) 100,00 %
27.12.2016 06:40 3,1 C 79 % 1034,4 hPa 0,0 l/m 21,3 km/h (4 Bft) W 261 0 min 0,000 mm 0,0 UV-I 0 W/m -0,2 C -6,2 C 35,4 km/h (5 Bft) 100,00 %
27.12.2016 06:42 3,1 C 79 % 1034,3 hPa 0,0 l/m 17,9 km/h (3 Bft) W 271 0 min 0,000 mm 0,0 UV-I 0 W/m -0,2 C -4,7 C 30,6 km/h (5 Bft) 97,87 %
27.12.2016 06:44 3,0 C 79 % 1034,4 hPa 0,0 l/m 14,9 km/h (3 Bft) W-SW 243 0 min 0,000 mm 0,0 UV-I 0 W/m -0,3 C -3,3 C 19,3 km/h (3 Bft) 100,00 %
27.12.2016 06:46 3,0 C 79 % 1034,3 hPa 0,0 l/m 15,7 km/h (3 Bft) W-SW 249 0 min 0,000 mm 0,0 UV-I 0 W/m -0,3 C -3,7 C 19,3 km/h (3 Bft) 95,74 %
27.12.2016 06:48 3,0 C 80 % 1034,3 hPa 0,0 l/m 21,1 km/h (4 Bft) W-SW 248 0 min 0,000 mm 0,0 UV-I 0 W/m -0,1 C -6,2 C 32,2 km/h (5 Bft) 97,87 %
27.12.2016 06:50 2,9 C 80 % 1034,3 hPa 0,0 l/m 20,4 km/h (4 Bft) W-SW 256 0 min 0,000 mm 0,0 UV-I 0 W/m -0,2 C -6,1 C 32,2 km/h (5 Bft) 97,87 %
27.12.2016 06:52 2,9 C 79 % 1034,3 hPa 0,0 l/m 22,4 km/h (4 Bft) W-SW 253 0 min 0,000 mm 0,0 UV-I 0 W/m -0,4 C -6,9 C 37,0 km/h (5 Bft) 100,00 %
27.12.2016 06:54 2,9 C 79 % 1034,3 hPa 0,0 l/m 18,5 km/h (3 Bft) W 270 0 min 0,000 mm 0,0 UV-I 0 W/m -0,4 C -5,2 C 25,7 km/h (4 Bft) 100,00 %
27.12.2016 06:56 2,9 C 79 % 1034,3 hPa 0,0 l/m 19,4 km/h (3 Bft) W 271 0 min 0,000 mm 0,0 UV-I 0 W/m -0,4 C -5,6 C 30,6 km/h (5 Bft) 97,37 %
27.12.2016 06:58 2,9 C 79 % 1034,3 hPa 0,0 l/m 18,9 km/h (3 Bft) W-SW 252 0 min 0,000 mm 0,0 UV-I 0 W/m -0,4 C -5,4 C 27,4 km/h (4 Bft) 97,87 %
27.12.2016 07:00 2,9 C 79 % 1034,3 hPa 0,0 l/m 21,4 km/h (4 Bft) W-SW 246 0 min 0,026 mm 0,0 UV-I 0 W/m -0,4 C -6,5 C 32,2 km/h (5 Bft) 100,00 %
27.12.2016 07:02 2,9 C 79 % 1034,3 hPa 0,0 l/m 17,5 km/h (3 Bft) W 279 0 min 0,000 mm 0,0 UV-I 0 W/m -0,4 C -4,8 C 24,1 km/h (4 Bft) 100,00 %
27.12.2016 07:04 2,8 C 79 % 1034,3 hPa 0,0 l/m 23,8 km/h (4 Bft) SW 225 0 min 0,000 mm 0,0 UV-I 0 W/m -0,5 C -7,5 C 32,2 km/h (5 Bft) 97,87 %
27.12.2016 07:06 2,8 C 79 % 1034,2 hPa 0,0 l/m 21,3 km/h (4 Bft) W 261 0 min 0,000 mm 0,0 UV-I 0 W/m -0,5 C -6,6 C 32,2 km/h (5 Bft) 97,87 %
27.12.2016 07:08 2,8 C 79 % 1034,3 hPa 0,0 l/m 19,1 km/h (3 Bft) W-SW 246 0 min 0,000 mm 0,0 UV-I 0 W/m -0,5 C -5,6 C 27,4 km/h (4 Bft) 97,87 %
27.12.2016 07:10 2,8 C 79 % 1034,3 hPa 0,0 l/m 23,5 km/h (4 Bft) W-SW 250 0 min 0,000 mm 0,0 UV-I 0 W/m -0,5 C -7,4 C 38,6 km/h (5 Bft) 97,87 %
27.12.2016 07:12 2,7 C 79 % 1034,2 hPa 0,0 l/m 25,7 km/h (4 Bft) W 269 0 min 0,000 mm 0,0 UV-I 0 W/m -0,6 C -8,3 C 43,5 km/h (6 Bft) 93,62 %
27.12.2016 07:14 2,7 C 79 % 1034,1 hPa 0,0 l/m 23,8 km/h (4 Bft) W 259 0 min 0,000 mm 0,0 UV-I 0 W/m -0,6 C -7,6 C 32,2 km/h (5 Bft) 97,92 %
27.12.2016 07:16 2,7 C 79 % 1034,2 hPa 0,0 l/m 25,8 km/h (4 Bft) W 263 0 min 0,000 mm 0,0 UV-I 0 W/m -0,6 C -8,3 C 35,4 km/h (5 Bft) 95,74 %
27.12.2016 07:18 2,7 C 79 % 1034,3 hPa 0,0 l/m 21,3 km/h (4 Bft) W-SW 238 0 min 0,000 mm 0,0 UV-I 0 W/m -0,6 C -6,7 C 29,0 km/h (5 Bft) 95,74 %
27.12.2016 07:20 2,7 C 79 % 1034,4 hPa 0,0 l/m 26,4 km/h (4 Bft) W 263 0 min 0,000 mm 0,0 UV-I 0 W/m -0,6 C -8,5 C 35,4 km/h (5 Bft) 97,87 %
27.12.2016 07:22 2,7 C 79 % 1034,4 hPa 0,0 l/m 24,8 km/h (4 Bft) W-SW 258 0 min 0,000 mm 0,0 UV-I 0 W/m -0,6 C -8,0 C 32,2 km/h (5 Bft) 98,00 %
27.12.2016 07:24 2,6 C 80 % 1034,5 hPa 0,0 l/m 22,1 km/h (4 Bft) W-SW 245 0 min 0,000 mm 0,0 UV-I 0 W/m -0,5 C -7,1 C 32,2 km/h (5 Bft) 95,74 %
27.12.2016 07:26 2,6 C 79 % 1034,5 hPa 0,0 l/m 21,0 km/h (4 Bft) W-SW 247 0 min 0,000 mm 0,0 UV-I 0 W/m -0,7 C -6,7 C 29,0 km/h (5 Bft) 97,87 %
27.12.2016 07:28 2,6 C 80 % 1034,6 hPa 0,0 l/m 19,1 km/h (3 Bft) W-SW 246 0 min 0,000 mm 0,0 UV-I 0 W/m -0,5 C -5,9 C 27,4 km/h (4 Bft) 91,49 %
27.12.2016 07:30 2,5 C 80 % 1034,6 hPa 0,0 l/m 22,5 km/h (4 Bft) W 263 0 min 0,000 mm 0,0 UV-I 0 W/m -0,6 C -7,4 C 29,0 km/h (5 Bft) 98,00 %
27.12.2016 07:32 2,4 C 80 % 1034,6 hPa 0,0 l/m 21,3 km/h (4 Bft) W-SW 244 0 min 0,000 mm 0,0 UV-I 0 W/m -0,7 C -7,1 C 30,6 km/h (5 Bft) 97,22 %
27.12.2016 07:34 2,4 C 79 % 1034,6 hPa 0,0 l/m 21,9 km/h (4 Bft) W-SW 253 0 min 0,000 mm 0,0 UV-I 0 W/m -0,9 C -7,3 C 30,6 km/h (5 Bft) 96,00 %
27.12.2016 07:36 2,4 C 79 % 1034,4 hPa 0,0 l/m 23,2 km/h (4 Bft) W-SW 248 0 min 0,000 mm 0,0 UV-I 0 W/m -0,9 C -7,8 C 37,0 km/h (5 Bft) 95,74 %
27.12.2016 07:38 2,4 C 79 % 1034,4 hPa 0,0 l/m 22,6 km/h (4 Bft) W-SW 248 0 min 0,000 mm 0,0 UV-I 0 W/m -0,9 C -7,6 C 37,0 km/h (5 Bft) 97,87 %
27.12.2016 07:40 2,4 C 79 % 1034,5 hPa 0,0 l/m 22,8 km/h (4 Bft) W 265 0 min 0,000 mm 0,0 UV-I 3 W/m -0,9 C -7,7 C 33,8 km/h (5 Bft) 100,00 %
27.12.2016 07:42 2,4 C 79 % 1034,5 hPa 0,0 l/m 22,6 km/h (4 Bft) W-SW 252 0 min 0,000 mm 0,0 UV-I 5 W/m -0,9 C -7,6 C 35,4 km/h (5 Bft) 100,00 %
27.12.2016 07:44 2,3 C 79 % 1034,5 hPa 0,0 l/m 22,4 km/h (4 Bft) W-SW 254 0 min 0,000 mm 0,0 UV-I 5 W/m -1,0 C -7,6 C 32,2 km/h (5 Bft) 95,74 %
27.12.2016 07:46 2,3 C 79 % 1034,5 hPa 0,0 l/m 24,0 km/h (4 Bft) SW 225 0 min 0,000 mm 0,0 UV-I 5 W/m -1,0 C -8,2 C 37,0 km/h (5 Bft) 100,00 %
27.12.2016 07:48 2,3 C 79 % 1034,4 hPa 0,0 l/m 28,2 km/h (4 Bft) W 269 0 min 0,000 mm 0,0 UV-I 7 W/m -1,0 C -9,6 C 37,0 km/h (5 Bft) 100,00 %
27.12.2016 07:50 2,3 C 79 % 1034,6 hPa 0,0 l/m 21,6 km/h (4 Bft) W-SW 248 0 min 0,000 mm 0,0 UV-I 7 W/m -1,0 C -7,3 C 32,2 km/h (5 Bft) 100,00 %
27.12.2016 07:52 2,3 C 79 % 1034,5 hPa 0,0 l/m 20,8 km/h (4 Bft) W-SW 258 0 min 0,000 mm 0,0 UV-I 7 W/m -1,0 C -7,0 C 30,6 km/h (5 Bft) 97,87 %
27.12.2016 07:54 2,3 C 79 % 1034,5 hPa 0,0 l/m 25,1 km/h (4 Bft) SW 233 0 min 0,000 mm 0,0 UV-I 9 W/m -1,0 C -8,6 C 41,8 km/h (6 Bft) 100,00 %
27.12.2016 07:56 2,3 C 79 % 1034,5 hPa 0,0 l/m 23,0 km/h (4 Bft) W-SW 255 0 min 0,000 mm 0,0 UV-I 9 W/m -1,0 C -7,9 C 29,0 km/h (5 Bft) 97,87 %
27.12.2016 07:58 2,3 C 79 % 1034,5 hPa 0,0 l/m 23,3 km/h (4 Bft) W 265 0 min 0,000 mm 0,0 UV-I 9 W/m -1,0 C -8,0 C 35,4 km/h (5 Bft) 100,00 %
27.12.2016 08:00 2,3 C 79 % 1034,6 hPa 0,0 l/m 27,4 km/h (4 Bft) W-SW 245 0 min 0,051 mm 0,0 UV-I 11 W/m -1,0 C -9,4 C 37,0 km/h (5 Bft) 97,87 %
27.12.2016 08:02 2,3 C 79 % 1034,5 hPa 0,0 l/m 23,2 km/h (4 Bft) W 275 0 min 0,000 mm 0,0 UV-I 11 W/m -1,0 C -8,0 C 33,8 km/h (5 Bft) 97,87 %
27.12.2016 08:04 2,3 C 79 % 1034,5 hPa 0,0 l/m 26,1 km/h (4 Bft) SW 231 0 min 0,000 mm 0,0 UV-I 11 W/m -1,0 C -9,0 C 43,5 km/h (6 Bft) 100,00 %
27.12.2016 08:06 2,3 C 79 % 1034,6 hPa 0,0 l/m 20,1 km/h (4 Bft) W-SW 254 2 min 0,000 mm 0,0 UV-I 12 W/m -1,0 C -6,7 C 40,2 km/h (6 Bft) 97,87 %
27.12.2016 08:08 2,3 C 78 % 1034,6 hPa 0,0 l/m 22,6 km/h (4 Bft) W 265 2 min 0,000 mm 0,0 UV-I 13 W/m -1,1 C -7,7 C 37,0 km/h (5 Bft) 100,00 %
27.12.2016 08:10 2,3 C 79 % 1034,6 hPa 0,0 l/m 21,4 km/h (4 Bft) W-SW 243 2 min 0,000 mm 0,0 UV-I 15 W/m -1,0 C -7,2 C 30,6 km/h (5 Bft) 100,00 %
27.12.2016 08:12 2,3 C 79 % 1034,6 hPa 0,0 l/m 27,8 km/h (4 Bft) W 267 2 min 0,000 mm 0,0 UV-I 19 W/m -1,0 C -9,5 C 48,3 km/h (6 Bft) 100,00 %
27.12.2016 08:14 2,3 C 78 % 1034,8 hPa 0,0 l/m 23,2 km/h (4 Bft) W-SW 254 2 min 0,000 mm 0,0 UV-I 22 W/m -1,1 C -8,0 C 33,8 km/h (5 Bft) 100,00 %
27.12.2016 08:16 2,3 C 78 % 1034,7 hPa 0,0 l/m 23,6 km/h (4 Bft) W-SW 255 2 min 0,000 mm 0,0 UV-I 25 W/m -1,1 C -8,1 C 33,8 km/h (5 Bft) 100,00 %
27.12.2016 08:18 2,3 C 78 % 1034,6 hPa 0,0 l/m 25,1 km/h (4 Bft) W 259 2 min 0,000 mm 0,0 UV-I 24 W/m -1,1 C -8,6 C 38,6 km/h (5 Bft) 100,00 %
27.12.2016 08:20 2,3 C 78 % 1034,6 hPa 0,0 l/m 17,3 km/h (3 Bft) W-SW 239 0 min 0,000 mm 0,0 UV-I 23 W/m -1,1 C -5,4 C 25,7 km/h (4 Bft) 97,87 %
27.12.2016 08:22 2,3 C 78 % 1034,7 hPa 0,0 l/m 19,5 km/h (3 Bft) W 263 0 min 0,000 mm 0,0 UV-I 21 W/m -1,1 C -6,4 C 32,2 km/h (5 Bft) 100,00 %
27.12.2016 08:24 2,3 C 78 % 1034,6 hPa 0,0 l/m 23,0 km/h (4 Bft) W 267 0 min 0,000 mm 0,0 UV-I 21 W/m -1,1 C -7,9 C 30,6 km/h (5 Bft) 100,00 %
27.12.2016 08:26 2,3 C 78 % 1034,5 hPa 0,0 l/m 22,1 km/h (4 Bft) W 277 0 min 0,000 mm 0,0 UV-I 23 W/m -1,1 C -7,5 C 30,6 km/h (5 Bft) 100,00 %
27.12.2016 08:28 2,3 C 78 % 1034,4 hPa 0,0 l/m 23,9 km/h (4 Bft) NW 314 0 min 0,000 mm 0,0 UV-I 22 W/m -1,1 C -8,2 C 38,6 km/h (5 Bft) 97,87 %
27.12.2016 08:30 2,3 C 78 % 1034,2 hPa 0,0 l/m 27,5 km/h (4 Bft) W-SW 244 0 min 0,000 mm 0,0 UV-I 23 W/m -1,1 C -9,4 C 41,8 km/h (6 Bft) 97,87 %
27.12.2016 08:32 2,3 C 78 % 1034,1 hPa 0,0 l/m 27,4 km/h (4 Bft) W 275 0 min 0,000 mm 0,0 UV-I 24 W/m -1,1 C -9,4 C 35,4 km/h (5 Bft) 98,00 %
27.12.2016 08:34 2,3 C 79 % 1034,1 hPa 0,0 l/m 23,3 km/h (4 Bft) W-SW 250 0 min 0,000 mm 0,0 UV-I 25 W/m -1,0 C -8,0 C 33,8 km/h (5 Bft) 100,00 %
27.12.2016 08:36 2,3 C 79 % 1034,0 hPa 0,0 l/m 28,3 km/h (4 Bft) W 267 0 min 0,000 mm 0,0 UV-I 26 W/m -1,0 C -9,7 C 41,8 km/h (6 Bft) 97,87 %
27.12.2016 08:38 2,3 C 79 % 1034,0 hPa 0,0 l/m 24,4 km/h (4 Bft) W 269 0 min 0,000 mm 0,0 UV-I 28 W/m -1,0 C -8,4 C 33,8 km/h (5 Bft) 100,00 %
27.12.2016 08:40 2,3 C 78 % 1034,1 hPa 0,0 l/m 29,4 km/h (5 Bft) SW 236 0 min 0,000 mm 0,0 UV-I 29 W/m -1,1 C -10,0 C 40,2 km/h (6 Bft) 97,37 %
27.12.2016 08:42 2,3 C 78 % 1034,1 hPa 0,0 l/m 25,7 km/h (4 Bft) W-SW 250 0 min 0,000 mm 0,0 UV-I 28 W/m -1,1 C -8,8 C 40,2 km/h (6 Bft) 100,00 %
27.12.2016 08:44 2,4 C 78 % 1034,0 hPa 0,0 l/m 25,2 km/h (4 Bft) W-SW 240 0 min 0,000 mm 0,0 UV-I 30 W/m -1,0 C -8,5 C 37,0 km/h (5 Bft) 95,83 %
27.12.2016 08:46 2,4 C 78 % 1034,1 hPa 0,0 l/m 31,0 km/h (5 Bft) SW 229 0 min 0,000 mm 0,0 UV-I 35 W/m -1,0 C -10,3 C 43,5 km/h (6 Bft) 100,00 %
27.12.2016 08:48 2,4 C 78 % 1034,0 hPa 0,0 l/m 24,0 km/h (4 Bft) W-SW 258 2 min 0,000 mm 0,0 UV-I 64 W/m -1,0 C -8,1 C 35,4 km/h (5 Bft) 97,92 %
27.12.2016 08:50 2,4 C 79 % 1034,1 hPa 0,0 l/m 26,5 km/h (4 Bft) W 259 2 min 0,000 mm 0,0 UV-I 88 W/m -0,9 C -9,0 C 41,8 km/h (6 Bft) 97,87 %
27.12.2016 08:52 2,4 C 79 % 1034,0 hPa 0,0 l/m 28,9 km/h (5 Bft) W-SW 248 2 min 0,000 mm 0,0 UV-I 95 W/m -0,9 C -9,7 C 41,8 km/h (6 Bft) 97,87 %
27.12.2016 08:54 2,4 C 78 % 1034,0 hPa 0,0 l/m 27,8 km/h (4 Bft) W-SW 257 2 min 0,000 mm 0,0 UV-I 91 W/m -1,0 C -9,4 C 48,3 km/h (6 Bft) 100,00 %
27.12.2016 08:56 2,5 C 78 % 1034,2 hPa 0,0 l/m 25,2 km/h (4 Bft) W 270 2 min 0,000 mm 0,0 UV-I 105 W/m -0,9 C -8,4 C 40,2 km/h (6 Bft) 100,00 %
27.12.2016 08:58 2,6 C 78 % 1034,0 hPa 0,0 l/m 25,4 km/h (4 Bft) W 271 2 min 0,000 mm 0,0 UV-I 82 W/m -0,8 C -8,3 C 38,6 km/h (5 Bft) 100,00 %
27.12.2016 09:00 2,6 C 78 % 1034,0 hPa 0,0 l/m 26,6 km/h (4 Bft) W-SW 254 0 min 0,050 mm 0,0 UV-I 72 W/m -0,8 C -8,7 C 41,8 km/h (6 Bft) 100,00 %
27.12.2016 09:02 2,6 C 78 % 1034,0 hPa 0,0 l/m 25,8 km/h (4 Bft) SW 236 2 min 0,000 mm 0,0 UV-I 82 W/m -0,8 C -8,5 C 38,6 km/h (5 Bft) 100,00 %
27.12.2016 09:04 2,6 C 78 % 1034,1 hPa 0,0 l/m 25,4 km/h (4 Bft) W-SW 257 2 min 0,000 mm 0,0 UV-I 121 W/m -0,8 C -8,3 C 33,8 km/h (5 Bft) 98,11 %
27.12.2016 09:06 2,6 C 78 % 1034,2 hPa 0,0 l/m 21,6 km/h (4 Bft) W-SW 247 2 min 0,000 mm 0,0 UV-I 126 W/m -0,8 C -6,9 C 30,6 km/h (5 Bft) 100,00 %
27.12.2016 09:08 2,6 C 78 % 1034,3 hPa 0,0 l/m 20,8 km/h (4 Bft) W-NW 294 2 min 0,000 mm 0,0 UV-I 131 W/m -0,8 C -6,6 C 29,0 km/h (5 Bft) 100,00 %
27.12.2016 09:10 2,6 C 78 % 1034,4 hPa 0,0 l/m 25,4 km/h (4 Bft) W-SW 251 2 min 0,000 mm 0,0 UV-I 134 W/m -0,8 C -8,3 C 40,2 km/h (6 Bft) 100,00 %
27.12.2016 09:12 2,7 C 78 % 1034,5 hPa 0,0 l/m 16,6 km/h (3 Bft) W-SW 249 2 min 0,000 mm 0,0 UV-I 136 W/m -0,7 C -4,6 C 38,6 km/h (5 Bft) 95,74 %
27.12.2016 09:14 2,7 C 78 % 1034,6 hPa 0,0 l/m 16,3 km/h (3 Bft) W-SW 255 2 min 0,000 mm 0,0 UV-I 140 W/m -0,7 C -4,4 C 29,0 km/h (5 Bft) 97,87 %
27.12.2016 09:16 2,7 C 77 % 1034,6 hPa 0,0 l/m 17,5 km/h (3 Bft) SW 220 2 min 0,000 mm 0,0 UV-I 144 W/m -0,9 C -5,0 C 24,1 km/h (4 Bft) 97,87 %
27.12.2016 09:18 2,7 C 77 % 1034,6 hPa 0,0 l/m 23,1 km/h (4 Bft) W 269 2 min 0,000 mm 0,0 UV-I 148 W/m -0,9 C -7,4 C 37,0 km/h (5 Bft) 97,87 %
27.12.2016 09:20 2,8 C 77 % 1034,5 hPa 0,0 l/m 24,9 km/h (4 Bft) W-SW 246 2 min 0,000 mm 0,0 UV-I 152 W/m -0,8 C -7,9 C 33,8 km/h (5 Bft) 95,74 %
27.12.2016 09:22 2,8 C 77 % 1034,5 hPa 0,0 l/m 26,3 km/h (4 Bft) W 261 2 min 0,000 mm 0,0 UV-I 155 W/m -0,8 C -8,4 C 43,5 km/h (6 Bft) 97,87 %
27.12.2016 09:24 2,8 C 76 % 1034,5 hPa 0,0 l/m 20,3 km/h (4 Bft) W 267 2 min 0,000 mm 0,0 UV-I 161 W/m -1,0 C -6,1 C 30,6 km/h (5 Bft) 95,74 %
27.12.2016 09:26 2,9 C 77 % 1034,6 hPa 0,0 l/m 18,6 km/h (3 Bft) SW 218 2 min 0,000 mm 0,0 UV-I 164 W/m -0,7 C -5,3 C 27,4 km/h (4 Bft) 97,96 %
27.12.2016 09:28 2,9 C 76 % 1034,5 hPa 0,0 l/m 28,5 km/h (4 Bft) W 265 2 min 0,000 mm 0,0 UV-I 168 W/m -0,9 C -8,9 C 51,5 km/h (7 Bft) 97,87 %
27.12.2016 09:30 2,9 C 75 % 1034,5 hPa 0,0 l/m 26,1 km/h (4 Bft) SW 235 2 min 0,000 mm 0,0 UV-I 172 W/m -1,1 C -8,2 C 41,8 km/h (6 Bft) 98,00 %
27.12.2016 09:32 3,0 C 75 % 1034,6 hPa 0,0 l/m 25,7 km/h (4 Bft) W 275 2 min 0,000 mm 0,0 UV-I 177 W/m -1,0 C -7,9 C 33,8 km/h (5 Bft) 97,87 %
27.12.2016 09:34 3,1 C 75 % 1034,6 hPa 0,0 l/m 24,9 km/h (4 Bft) SW 220 2 min 0,000 mm 0,0 UV-I 183 W/m -0,9 C -7,5 C 35,4 km/h (5 Bft) 96,00 %
27.12.2016 09:36 3,1 C 75 % 1034,6 hPa 0,0 l/m 25,8 km/h (4 Bft) W-SW 254 2 min 0,000 mm 0,0 UV-I 225 W/m -0,9 C -7,8 C 33,8 km/h (5 Bft) 97,92 %
27.12.2016 09:38 3,2 C 75 % 1034,7 hPa 0,0 l/m 24,2 km/h (4 Bft) W 273 2 min 0,000 mm 0,0 UV-I 258 W/m -0,8 C -7,1 C 38,6 km/h (5 Bft) 100,00 %
27.12.2016 09:40 3,3 C 76 % 1034,7 hPa 0,0 l/m 23,9 km/h (4 Bft) SW 229 2 min 0,000 mm 0,0 UV-I 162 W/m -0,5 C -6,9 C 30,6 km/h (5 Bft) 97,87 %
27.12.2016 09:42 3,3 C 76 % 1034,6 hPa 0,0 l/m 22,2 km/h (4 Bft) W-SW 242 0 min 0,000 mm 0,0 UV-I 96 W/m -0,5 C -6,2 C 33,8 km/h (5 Bft) 95,74 %
27.12.2016 09:44 3,3 C 76 % 1034,6 hPa 0,0 l/m 25,6 km/h (4 Bft) W 261 0 min 0,000 mm 0,0 UV-I 79 W/m -0,5 C -7,4 C 37,0 km/h (5 Bft) 93,62 %
27.12.2016 09:46 3,3 C 76 % 1034,6 hPa 0,0 l/m 23,1 km/h (4 Bft) SW 223 0 min 0,000 mm 0,0 UV-I 71 W/m -0,5 C -6,6 C 35,4 km/h (5 Bft) 97,87 %
27.12.2016 09:48 3,3 C 76 % 1034,7 hPa 0,0 l/m 18,7 km/h (3 Bft) W 263 0 min 0,000 mm 0,0 UV-I 68 W/m -0,5 C -4,8 C 29,0 km/h (5 Bft) 100,00 %
27.12.2016 09:50 3,3 C 76 % 1034,7 hPa 0,0 l/m 17,7 km/h (3 Bft) W-SW 250 0 min 0,000 mm 0,0 UV-I 65 W/m -0,5 C -4,3 C 25,7 km/h (4 Bft) 97,87 %
27.12.2016 09:52 3,3 C 77 % 1034,8 hPa 0,0 l/m 18,6 km/h (3 Bft) W-SW 240 0 min 0,000 mm 0,0 UV-I 65 W/m -0,3 C -4,8 C 27,4 km/h (4 Bft) 100,00 %
27.12.2016 09:54 3,3 C 76 % 1034,9 hPa 0,0 l/m 18,2 km/h (3 Bft) W-SW 254 0 min 0,000 mm 0,0 UV-I 60 W/m -0,5 C -4,6 C 30,6 km/h (5 Bft) 100,00 %
27.12.2016 09:56 3,3 C 77 % 1035,0 hPa 0,0 l/m 22,6 km/h (4 Bft) W-SW 252 0 min 0,000 mm 0,0 UV-I 53 W/m -0,3 C -6,4 C 37,0 km/h (5 Bft) 100,00 %
27.12.2016 09:58 3,3 C 77 % 1035,0 hPa 0,0 l/m 19,8 km/h (3 Bft) W-SW 250 0 min 0,000 mm 0,0 UV-I 50 W/m -0,3 C -5,3 C 29,0 km/h (5 Bft) 100,00 %
27.12.2016 10:00 3,3 C 77 % 1035,0 hPa 0,0 l/m 20,5 km/h (4 Bft) W-SW 250 0 min 0,077 mm 0,0 UV-I 51 W/m -0,3 C -5,6 C 38,6 km/h (5 Bft) 100,00 %
27.12.2016 10:02 3,3 C 77 % 1035,0 hPa 0,0 l/m 19,1 km/h (3 Bft) W-SW 257 0 min 0,000 mm 0,0 UV-I 54 W/m -0,3 C -5,0 C 30,6 km/h (5 Bft) 100,00 %
27.12.2016 10:04 3,3 C 77 % 1035,0 hPa 0,0 l/m 21,1 km/h (4 Bft) W-SW 254 0 min 0,000 mm 0,0 UV-I 56 W/m -0,3 C -5,8 C 33,8 km/h (5 Bft) 100,00 %
27.12.2016 10:06 3,3 C 77 % 1035,0 hPa 0,0 l/m 20,0 km/h (4 Bft) W-SW 245 0 min 0,000 mm 0,0 UV-I 56 W/m -0,3 C -5,4 C 29,0 km/h (5 Bft) 100,00 %
27.12.2016 10:08 3,3 C 77 % 1035,0 hPa 0,0 l/m 19,8 km/h (3 Bft) W-SW 257 0 min 0,000 mm 0,0 UV-I 53 W/m -0,3 C -5,3 C 30,6 km/h (5 Bft) 98,00 %
27.12.2016 10:10 3,3 C 77 % 1035,0 hPa 0,0 l/m 22,8 km/h (4 Bft) W-SW 250 0 min 0,000 mm 0,0 UV-I 52 W/m -0,3 C -6,5 C 45,1 km/h (6 Bft) 100,00 %
27.12.2016 10:12 3,3 C 77 % 1035,1 hPa 0,0 l/m 28,5 km/h (4 Bft) W 260 0 min 0,000 mm 0,0 UV-I 51 W/m -0,3 C -8,3 C 46,7 km/h (6 Bft) 95,74 %
27.12.2016 10:14 3,3 C 77 % 1035,2 hPa 0,0 l/m 20,2 km/h (4 Bft) W-SW 257 0 min 0,000 mm 0,0 UV-I 49 W/m -0,3 C -5,5 C 32,2 km/h (5 Bft) 100,00 %
27.12.2016 10:16 3,3 C 77 % 1035,3 hPa 0,0 l/m 17,7 km/h (3 Bft) W 263 0 min 0,000 mm 0,0 UV-I 50 W/m -0,3 C -4,3 C 35,4 km/h (5 Bft) 100,00 %
27.12.2016 10:18 3,3 C 77 % 1035,4 hPa 0,0 l/m 18,2 km/h (3 Bft) W-SW 253 0 min 0,000 mm 0,0 UV-I 51 W/m -0,3 C -4,6 C 30,6 km/h (5 Bft) 95,74 %
27.12.2016 10:20 3,3 C 77 % 1035,4 hPa 0,0 l/m 25,7 km/h (4 Bft) SW 232 0 min 0,000 mm 0,0 UV-I 53 W/m -0,3 C -7,5 C 43,5 km/h (6 Bft) 100,00 %
27.12.2016 10:22 3,3 C 77 % 1035,5 hPa 0,0 l/m 22,6 km/h (4 Bft) W 263 0 min 0,000 mm 0,0 UV-I 54 W/m -0,3 C -6,4 C 33,8 km/h (5 Bft) 100,00 %
27.12.2016 10:24 3,3 C 77 % 1035,4 hPa 0,0 l/m 17,2 km/h (3 Bft) SW 220 0 min 0,000 mm 0,0 UV-I 60 W/m -0,3 C -4,1 C 27,4 km/h (4 Bft) 97,87 %
27.12.2016 10:26 3,3 C 77 % 1035,4 hPa 0,0 l/m 28,2 km/h (4 Bft) W 273 0 min 0,000 mm 0,0 UV-I 66 W/m -0,3 C -8,3 C 41,8 km/h (6 Bft) 95,74 %
27.12.2016 10:28 3,3 C 77 % 1035,5 hPa 0,0 l/m 20,0 km/h (4 Bft) W-SW 256 0 min 0,000 mm 0,0 UV-I 67 W/m -0,3 C -5,4 C 30,6 km/h (5 Bft) 97,87 %
27.12.2016 10:30 3,3 C 77 % 1035,5 hPa 0,0 l/m 21,1 km/h (4 Bft) W-NW 289 0 min 0,000 mm 0,0 UV-I 63 W/m -0,3 C -5,8 C 32,2 km/h (5 Bft) 97,87 %
27.12.2016 10:32 3,3 C 77 % 1035,5 hPa 0,0 l/m 20,2 km/h (4 Bft) W-NW 283 0 min 0,000 mm 0,0 UV-I 65 W/m -0,3 C -5,5 C 41,8 km/h (6 Bft) 100,00 %
27.12.2016 10:34 3,3 C 77 % 1035,4 hPa 0,0 l/m 20,5 km/h (4 Bft) W 265 0 min 0,000 mm 0,0 UV-I 71 W/m -0,3 C -5,6 C 32,2 km/h (5 Bft) 100,00 %
27.12.2016 10:36 3,3 C 77 % 1035,4 hPa 0,0 l/m 17,9 km/h (3 Bft) W-SW 245 0 min 0,000 mm 0,0 UV-I 81 W/m -0,3 C -4,4 C 29,0 km/h (5 Bft) 100,00 %
27.12.2016 10:38 3,3 C 77 % 1035,4 hPa 0,0 l/m 19,2 km/h (3 Bft) W-SW 258 0 min 0,000 mm 0,0 UV-I 86 W/m -0,3 C -5,0 C 25,7 km/h (4 Bft) 100,00 %
27.12.2016 10:40 3,3 C 77 % 1035,3 hPa 0,0 l/m 22,4 km/h (4 Bft) W-SW 247 0 min 0,000 mm 0,0 UV-I 86 W/m -0,3 C -6,3 C 32,2 km/h (5 Bft) 100,00 %
27.12.2016 10:42 3,3 C 77 % 1035,4 hPa 0,0 l/m 21,8 km/h (4 Bft) SW 229 0 min 0,000 mm 0,0 UV-I 84 W/m -0,3 C -6,1 C 37,0 km/h (5 Bft) 96,00 %
27.12.2016 10:44 3,3 C 78 % 1035,5 hPa 0,0 l/m 17,8 km/h (3 Bft) W 268 0 min 0,000 mm 0,0 UV-I 75 W/m -0,2 C -4,4 C 25,7 km/h (4 Bft) 100,00 %
27.12.2016 10:46 3,3 C 78 % 1035,4 hPa 0,0 l/m 20,9 km/h (4 Bft) W 260 0 min 0,000 mm 0,0 UV-I 69 W/m -0,2 C -5,7 C 32,2 km/h (5 Bft) 97,87 %
27.12.2016 10:48 3,3 C 78 % 1035,6 hPa 0,0 l/m 18,7 km/h (3 Bft) W 259 0 min 0,000 mm 0,0 UV-I 59 W/m -0,2 C -4,8 C 35,4 km/h (5 Bft) 100,00 %
27.12.2016 10:50 3,3 C 77 % 1035,7 hPa 0,0 l/m 23,2 km/h (4 Bft) NW 304 0 min 0,000 mm 0,0 UV-I 44 W/m -0,3 C -6,6 C 40,2 km/h (6 Bft) 95,74 %
27.12.2016 10:52 3,3 C 77 % 1035,7 hPa 0,0 l/m 19,1 km/h (3 Bft) W-SW 252 0 min 0,000 mm 0,0 UV-I 41 W/m -0,3 C -5,0 C 30,6 km/h (5 Bft) 97,87 %
27.12.2016 10:54 3,3 C 77 % 1035,6 hPa 0,0 l/m 23,0 km/h (4 Bft) W 261 0 min 0,000 mm 0,0 UV-I 55 W/m -0,3 C -6,5 C 33,8 km/h (5 Bft) 100,00 %
27.12.2016 10:56 3,3 C 77 % 1035,6 hPa 0,0 l/m 23,9 km/h (4 Bft) SW 234 0 min 0,000 mm 0,0 UV-I 71 W/m -0,3 C -6,9 C 35,4 km/h (5 Bft) 100,00 %
27.12.2016 10:58 3,3 C 77 % 1035,6 hPa 0,0 l/m 21,5 km/h (4 Bft) W-NW 285 0 min 0,000 mm 0,0 UV-I 79 W/m -0,3 C -6,0 C 32,2 km/h (5 Bft) 97,87 %
27.12.2016 11:00 3,3 C 77 % 1035,5 hPa 0,0 l/m 23,9 km/h (4 Bft) W 273 0 min 0,000 mm 0,0 UV-I 90 W/m -0,3 C -6,9 C 33,8 km/h (5 Bft) 100,00 %
27.12.2016 11:02 3,3 C 77 % 1035,4 hPa 0,0 l/m 24,2 km/h (4 Bft) W 264 0 min 0,076 mm 0,0 UV-I 92 W/m -0,3 C -7,0 C 48,3 km/h (6 Bft) 98,00 %
27.12.2016 11:04 3,3 C 77 % 1035,4 hPa 0,0 l/m 26,9 km/h (4 Bft) W-SW 242 0 min 0,000 mm 0,0 UV-I 93 W/m -0,3 C -7,9 C 46,7 km/h (6 Bft) 93,62 %
27.12.2016 11:06 3,3 C 77 % 1035,3 hPa 0,0 l/m 23,3 km/h (4 Bft) W 265 0 min 0,000 mm 0,0 UV-I 98 W/m -0,3 C -6,7 C 30,6 km/h (5 Bft) 97,87 %
27.12.2016 11:08 3,3 C 77 % 1035,4 hPa 0,0 l/m 20,7 km/h (4 Bft) W-SW 251 0 min 0,000 mm 0,0 UV-I 105 W/m -0,3 C -5,7 C 37,0 km/h (5 Bft) 97,37 %
27.12.2016 11:10 3,3 C 77 % 1035,3 hPa 0,0 l/m 17,9 km/h (3 Bft) W 259 0 min 0,000 mm 0,0 UV-I 110 W/m -0,3 C -4,4 C 24,1 km/h (4 Bft) 98,00 %
27.12.2016 11:12 3,4 C 77 % 1035,4 hPa 0,0 l/m 23,5 km/h (4 Bft) W-SW 239 0 min 0,000 mm 0,0 UV-I 117 W/m -0,2 C -6,6 C 32,2 km/h (5 Bft) 100,00 %
27.12.2016 11:14 3,4 C 77 % 1035,3 hPa 0,0 l/m 20,2 km/h (4 Bft) W 273 0 min 0,000 mm 0,0 UV-I 136 W/m -0,2 C -5,3 C 33,8 km/h (5 Bft) 97,87 %
27.12.2016 11:16 3,4 C 78 % 1035,4 hPa 0,0 l/m 19,1 km/h (3 Bft) W-SW 255 0 min 0,000 mm 0,0 UV-I 157 W/m -0,1 C -4,9 C 27,4 km/h (4 Bft) 97,87 %
27.12.2016 11:18 3,5 C 78 % 1035,2 hPa 0,0 l/m 22,4 km/h (4 Bft) W-SW 258 2 min 0,000 mm 0,0 UV-I 182 W/m 0,0 C -6,1 C 35,4 km/h (5 Bft) 97,87 %
27.12.2016 11:20 3,6 C 77 % 1035,3 hPa 0,0 l/m 27,0 km/h (4 Bft) W-SW 255 2 min 0,000 mm 0,0 UV-I 200 W/m -0,0 C -7,5 C 46,7 km/h (6 Bft) 95,74 %
27.12.2016 11:22 3,6 C 76 % 1035,3 hPa 0,0 l/m 29,3 km/h (5 Bft) SW 235 2 min 0,000 mm 0,0 UV-I 206 W/m -0,2 C -8,2 C 43,5 km/h (6 Bft) 98,00 %
27.12.2016 11:24 3,7 C 76 % 1035,3 hPa 0,0 l/m 23,9 km/h (4 Bft) W 260 2 min 0,000 mm 0,0 UV-I 251 W/m -0,1 C -6,3 C 33,8 km/h (5 Bft) 93,62 %
27.12.2016 11:26 3,7 C 77 % 1035,3 hPa 0,0 l/m 19,4 km/h (3 Bft) W 259 0 min 0,000 mm 0,0 UV-I 153 W/m 0,1 C -4,6 C 30,6 km/h (5 Bft) 97,87 %
27.12.2016 11:28 3,7 C 76 % 1035,3 hPa 0,0 l/m 22,7 km/h (4 Bft) W-SW 255 0 min 0,000 mm 0,0 UV-I 145 W/m -0,1 C -5,9 C 40,2 km/h (6 Bft) 97,87 %
27.12.2016 11:30 3,7 C 76 % 1035,2 hPa 0,0 l/m 22,7 km/h (4 Bft) W-SW 254 0 min 0,000 mm 0,0 UV-I 138 W/m -0,1 C -5,9 C 38,6 km/h (5 Bft) 97,92 %
27.12.2016 11:32 3,7 C 77 % 1035,3 hPa 0,0 l/m 19,2 km/h (3 Bft) W 259 0 min 0,000 mm 0,0 UV-I 134 W/m 0,1 C -4,5 C 40,2 km/h (6 Bft) 91,49 %
27.12.2016 11:34 3,8 C 76 % 1035,3 hPa 0,0 l/m 24,8 km/h (4 Bft) NW 308 0 min 0,000 mm 0,0 UV-I 139 W/m -0,0 C -6,5 C 38,6 km/h (5 Bft) 97,87 %
27.12.2016 11:36 3,8 C 76 % 1035,2 hPa 0,0 l/m 22,3 km/h (4 Bft) W-SW 246 0 min 0,000 mm 0,0 UV-I 145 W/m -0,0 C -5,6 C 40,2 km/h (6 Bft) 95,74 %
27.12.2016 11:38 3,8 C 76 % 1035,2 hPa 0,0 l/m 23,0 km/h (4 Bft) W-SW 255 0 min 0,000 mm 0,0 UV-I 143 W/m -0,0 C -5,9 C 33,8 km/h (5 Bft) 95,12 %
27.12.2016 11:40 3,8 C 76 % 1035,3 hPa 0,0 l/m 21,5 km/h (4 Bft) W-SW 257 0 min 0,000 mm 0,0 UV-I 151 W/m -0,0 C -5,3 C 32,2 km/h (5 Bft) 95,74 %
27.12.2016 11:42 3,8 C 75 % 1035,3 hPa 0,0 l/m 25,9 km/h (4 Bft) W 259 0 min 0,000 mm 0,0 UV-I 166 W/m -0,2 C -6,9 C 37,0 km/h (5 Bft) 97,87 %
27.12.2016 11:44 3,8 C 76 % 1035,3 hPa 0,0 l/m 17,3 km/h (3 Bft) W 263 0 min 0,000 mm 0,0 UV-I 164 W/m -0,0 C -3,5 C 33,8 km/h (5 Bft) 95,74 %
27.12.2016 11:46 3,8 C 76 % 1035,4 hPa 0,0 l/m 24,9 km/h (4 Bft) W-SW 257 0 min 0,000 mm 0,0 UV-I 133 W/m -0,0 C -6,5 C 51,5 km/h (7 Bft) 100,00 %
27.12.2016 11:48 3,8 C 75 % 1035,5 hPa 0,0 l/m 22,4 km/h (4 Bft) W-SW 244 0 min 0,000 mm 0,0 UV-I 113 W/m -0,2 C -5,7 C 35,4 km/h (5 Bft) 100,00 %
27.12.2016 11:50 3,8 C 75 % 1035,5 hPa 0,0 l/m 29,0 km/h (5 Bft) W-SW 245 0 min 0,000 mm 0,0 UV-I 98 W/m -0,2 C -7,8 C 43,5 km/h (6 Bft) 96,00 %
27.12.2016 11:52 3,8 C 76 % 1035,6 hPa 0,0 l/m 22,2 km/h (4 Bft) W 259 0 min 0,000 mm 0,0 UV-I 77 W/m -0,0 C -5,6 C 30,6 km/h (5 Bft) 92,11 %
27.12.2016 11:54 3,8 C 76 % 1035,5 hPa 0,0 l/m 20,5 km/h (4 Bft) W-SW 244 0 min 0,000 mm 0,0 UV-I 76 W/m -0,0 C -4,9 C 29,0 km/h (5 Bft) 100,00 %
27.12.2016 11:56 3,8 C 76 % 1035,6 hPa 0,0 l/m 17,2 km/h (3 Bft) W 264 0 min 0,000 mm 0,0 UV-I 71 W/m -0,0 C -3,5 C 24,1 km/h (4 Bft) 100,00 %
27.12.2016 11:58 3,8 C 76 % 1035,4 hPa 0,0 l/m 17,7 km/h (3 Bft) W 262 0 min 0,000 mm 0,0 UV-I 77 W/m -0,0 C -3,7 C 27,4 km/h (4 Bft) 100,00 %
27.12.2016 12:00 3,8 C 76 % 1035,5 hPa 0,0 l/m 23,3 km/h (4 Bft) W-SW 238 0 min 0,101 mm 0,0 UV-I 82 W/m -0,0 C -6,0 C 35,4 km/h (5 Bft) 97,87 %
27.12.2016 12:02 3,8 C 76 % 1035,5 hPa 0,0 l/m 22,6 km/h (4 Bft) W-SW 254 0 min 0,000 mm 0,0 UV-I 81 W/m -0,0 C -5,7 C 32,2 km/h (5 Bft) 100,00 %
27.12.2016 12:04 3,8 C 76 % 1035,5 hPa 0,0 l/m 21,1 km/h (4 Bft) W-NW 284 0 min 0,000 mm 0,0 UV-I 83 W/m -0,0 C -5,2 C 29,0 km/h (5 Bft) 97,87 %
27.12.2016 12:06 3,8 C 76 % 1035,6 hPa 0,0 l/m 23,6 km/h (4 Bft) W-SW 240 0 min 0,000 mm 0,0 UV-I 77 W/m -0,0 C -6,1 C 40,2 km/h (6 Bft) 100,00 %
27.12.2016 12:08 3,8 C 76 % 1035,5 hPa 0,0 l/m 21,9 km/h (4 Bft) W-SW 246 0 min 0,000 mm 0,0 UV-I 71 W/m -0,0 C -5,5 C 37,0 km/h (5 Bft) 97,87 %
27.12.2016 12:10 3,8 C 76 % 1035,5 hPa 0,0 l/m 20,5 km/h (4 Bft) W-SW 254 0 min 0,000 mm 0,0 UV-I 74 W/m -0,0 C -4,9 C 32,2 km/h (5 Bft) 100,00 %
27.12.2016 12:12 3,8 C 76 % 1035,5 hPa 0,0 l/m 19,8 km/h (3 Bft) W-SW 250 0 min 0,000 mm 0,0 UV-I 71 W/m -0,0 C -4,6 C 30,6 km/h (5 Bft) 93,62 %
27.12.2016 12:14 3,7 C 76 % 1035,6 hPa 0,0 l/m 19,7 km/h (3 Bft) W-SW 253 0 min 0,000 mm 0,0 UV-I 58 W/m -0,1 C -4,7 C 27,4 km/h (4 Bft) 100,00 %
27.12.2016 12:16 3,7 C 76 % 1035,6 hPa 0,0 l/m 18,1 km/h (3 Bft) W-SW 241 0 min 0,000 mm 0,0 UV-I 67 W/m -0,1 C -4,0 C 24,1 km/h (4 Bft) 97,87 %
27.12.2016 12:18 3,7 C 76 % 1035,5 hPa 0,0 l/m 19,4 km/h (3 Bft) W 261 0 min 0,000 mm 0,0 UV-I 79 W/m -0,1 C -4,6 C 30,6 km/h (5 Bft) 100,00 %
27.12.2016 12:20 3,7 C 76 % 1035,5 hPa 0,0 l/m 20,9 km/h (4 Bft) SW 224 0 min 0,000 mm 0,0 UV-I 71 W/m -0,1 C -5,2 C 29,0 km/h (5 Bft) 100,00 %
27.12.2016 12:22 3,7 C 76 % 1035,5 hPa 0,0 l/m 20,1 km/h (4 Bft) W 276 0 min 0,000 mm 0,0 UV-I 61 W/m -0,1 C -4,9 C 32,2 km/h (5 Bft) 100,00 %
27.12.2016 12:24 3,7 C 76 % 1035,6 hPa 0,0 l/m 24,9 km/h (4 Bft) W 267 0 min 0,000 mm 0,0 UV-I 61 W/m -0,1 C -6,7 C 35,4 km/h (5 Bft) 100,00 %
27.12.2016 12:26 3,7 C 76 % 1035,7 hPa 0,0 l/m 22,3 km/h (4 Bft) W 263 0 min 0,000 mm 0,0 UV-I 55 W/m -0,1 C -5,8 C 37,0 km/h (5 Bft) 100,00 %
27.12.2016 12:28 3,7 C 76 % 1035,6 hPa 0,0 l/m 22,2 km/h (4 Bft) W-NW 288 0 min 0,000 mm 0,0 UV-I 53 W/m -0,1 C -5,7 C 35,4 km/h (5 Bft) 100,00 %
27.12.2016 12:30 3,7 C 76 % 1035,6 hPa 0,0 l/m 15,2 km/h (3 Bft) W-SW 253 0 min 0,000 mm 0,0 UV-I 46 W/m -0,1 C -2,6 C 24,1 km/h (4 Bft) 97,87 %
27.12.2016 12:32 3,7 C 77 % 1035,8 hPa 0,0 l/m 18,3 km/h (3 Bft) W-SW 256 0 min 0,000 mm 0,0 UV-I 38 W/m 0,1 C -4,1 C 38,6 km/h (5 Bft) 100,00 %
27.12.2016 12:34 3,7 C 76 % 1035,8 hPa 0,0 l/m 25,4 km/h (4 Bft) W-SW 254 0 min 0,000 mm 0,0 UV-I 31 W/m -0,1 C -6,8 C 38,6 km/h (5 Bft) 100,00 %
27.12.2016 12:36 3,7 C 76 % 1035,8 hPa 0,0 l/m 19,5 km/h (3 Bft) W-SW 247 0 min 0,000 mm 0,0 UV-I 29 W/m -0,1 C -4,6 C 25,7 km/h (4 Bft) 100,00 %
27.12.2016 12:38 3,7 C 76 % 1035,7 hPa 0,0 l/m 19,2 km/h (3 Bft) W-SW 257 0 min 0,000 mm 0,0 UV-I 31 W/m -0,1 C -4,5 C 41,8 km/h (6 Bft) 97,87 %
27.12.2016 12:40 3,7 C 76 % 1035,7 hPa 0,0 l/m 18,0 km/h (3 Bft) W-SW 242 0 min 0,000 mm 0,0 UV-I 26 W/m -0,1 C -4,0 C 24,1 km/h (4 Bft) 97,87 %
27.12.2016 12:42 3,7 C 76 % 1035,8 hPa 0,0 l/m 18,1 km/h (3 Bft) W-SW 247 0 min 0,000 mm 0,0 UV-I 30 W/m -0,1 C -4,0 C 22,5 km/h (4 Bft) 97,87 %
27.12.2016 12:44 3,7 C 76 % 1035,8 hPa 0,0 l/m 18,8 km/h (3 Bft) W 269 0 min 0,000 mm 0,0 UV-I 43 W/m -0,1 C -4,3 C 29,0 km/h (5 Bft) 100,00 %
27.12.2016 12:46 3,7 C 76 % 1035,8 hPa 0,0 l/m 17,9 km/h (3 Bft) W 263 0 min 0,000 mm 0,0 UV-I 41 W/m -0,1 C -3,9 C 29,0 km/h (5 Bft) 100,00 %
27.12.2016 12:48 3,7 C 75 % 1035,8 hPa 0,0 l/m 30,5 km/h (5 Bft) W-NW 282 0 min 0,000 mm 0,0 UV-I 43 W/m -0,3 C -8,3 C 46,7 km/h (6 Bft) 100,00 %
27.12.2016 12:50 3,7 C 75 % 1035,7 hPa 0,0 l/m 24,5 km/h (4 Bft) SW 227 0 min 0,000 mm 0,0 UV-I 56 W/m -0,3 C -6,5 C 32,2 km/h (5 Bft) 98,00 %
27.12.2016 12:52 3,8 C 76 % 1035,7 hPa 0,0 l/m 18,8 km/h (3 Bft) W-SW 240 0 min 0,000 mm 0,0 UV-I 66 W/m -0,0 C -4,2 C 27,4 km/h (4 Bft) 100,00 %
27.12.2016 12:54 3,8 C 76 % 1035,7 hPa 0,0 l/m 25,5 km/h (4 Bft) W 265 0 min 0,000 mm 0,0 UV-I 62 W/m -0,0 C -6,7 C 38,6 km/h (5 Bft) 100,00 %
27.12.2016 12:56 3,8 C 76 % 1035,7 hPa 0,0 l/m 19,8 km/h (3 Bft) W-SW 237 0 min 0,000 mm 0,0 UV-I 58 W/m -0,0 C -4,6 C 33,8 km/h (5 Bft) 97,87 %
27.12.2016 12:58 3,8 C 75 % 1035,6 hPa 0,0 l/m 26,1 km/h (4 Bft) S-SW 211 0 min 0,000 mm 0,0 UV-I 56 W/m -0,2 C -6,9 C 38,6 km/h (5 Bft) 100,00 %
27.12.2016 13:00 3,8 C 75 % 1035,6 hPa 0,0 l/m 26,3 km/h (4 Bft) W 264 0 min 0,077 mm 0,0 UV-I 60 W/m -0,2 C -7,0 C 37,0 km/h (5 Bft) 98,00 %
27.12.2016 13:02 3,8 C 76 % 1035,6 hPa 0,0 l/m 19,0 km/h (3 Bft) SW 235 0 min 0,000 mm 0,0 UV-I 53 W/m -0,0 C -4,3 C 27,4 km/h (4 Bft) 95,74 %
27.12.2016 13:04 3,8 C 75 % 1035,6 hPa 0,0 l/m 23,5 km/h (4 Bft) W-SW 252 0 min 0,000 mm 0,0 UV-I 40 W/m -0,2 C -6,1 C 40,2 km/h (6 Bft) 95,74 %
27.12.2016 13:06 3,8 C 75 % 1035,7 hPa 0,0 l/m 27,7 km/h (4 Bft) W-SW 248 0 min 0,000 mm 0,0 UV-I 28 W/m -0,2 C -7,4 C 40,2 km/h (6 Bft) 97,87 %
27.12.2016 13:08 3,8 C 75 % 1035,8 hPa 0,0 l/m 21,3 km/h (4 Bft) SW 236 0 min 0,000 mm 0,0 UV-I 22 W/m -0,2 C -5,2 C 33,8 km/h (5 Bft) 97,87 %
27.12.2016 13:10 3,8 C 76 % 1035,9 hPa 0,0 l/m 15,0 km/h (3 Bft) W-SW 246 0 min 0,000 mm 0,0 UV-I 21 W/m -0,0 C -2,4 C 25,7 km/h (4 Bft) 100,00 %
27.12.2016 13:12 3,8 C 76 % 1035,8 hPa 0,0 l/m 21,9 km/h (4 Bft) W 279 0 min 0,000 mm 0,0 UV-I 21 W/m -0,0 C -5,5 C 37,0 km/h (5 Bft) 100,00 %
27.12.2016 13:14 3,8 C 76 % 1035,8 hPa 0,0 l/m 23,1 km/h (4 Bft) W 261 0 min 0,000 mm 0,0 UV-I 20 W/m -0,0 C -5,9 C 43,5 km/h (6 Bft) 97,87 %
27.12.2016 13:16 3,8 C 76 % 1035,9 hPa 0,0 l/m 24,2 km/h (4 Bft) W-SW 248 0 min 0,000 mm 0,0 UV-I 24 W/m -0,0 C -6,3 C 33,8 km/h (5 Bft) 95,74 %
27.12.2016 13:18 3,7 C 76 % 1035,9 hPa 0,0 l/m 21,4 km/h (4 Bft) W-SW 250 0 min 0,000 mm 0,0 UV-I 31 W/m -0,1 C -5,4 C 33,8 km/h (5 Bft) 96,00 %
27.12.2016 13:20 3,7 C 76 % 1035,9 hPa 0,0 l/m 23,8 km/h (4 Bft) W 275 0 min 0,000 mm 0,0 UV-I 34 W/m -0,1 C -6,3 C 41,8 km/h (6 Bft) 94,74 %
27.12.2016 13:22 3,7 C 76 % 1035,9 hPa 0,0 l/m 16,6 km/h (3 Bft) W-SW 248 0 min 0,000 mm 0,0 UV-I 42 W/m -0,1 C -3,3 C 29,0 km/h (5 Bft) 97,30 %
27.12.2016 13:24 3,7 C 77 % 1035,7 hPa 0,0 l/m 18,1 km/h (3 Bft) W-SW 251 0 min 0,000 mm 0,0 UV-I 38 W/m 0,1 C -4,0 C 29,0 km/h (5 Bft) 95,16 %
27.12.2016 13:26 3,7 C 77 % 1035,7 hPa 0,0 l/m 21,7 km/h (4 Bft) W-SW 256 0 min 0,000 mm 0,0 UV-I 51 W/m 0,1 C -5,5 C 32,2 km/h (5 Bft) 97,96 %
27.12.2016 13:28 3,7 C 77 % 1035,7 hPa 0,0 l/m 19,9 km/h (4 Bft) W-SW 254 0 min 0,000 mm 0,0 UV-I 58 W/m 0,1 C -4,8 C 27,4 km/h (4 Bft) 97,92 %
27.12.2016 13:30 3,7 C 77 % 1035,7 hPa 0,0 l/m 26,7 km/h (4 Bft) W-SW 241 0 min 0,000 mm 0,0 UV-I 53 W/m 0,1 C -7,2 C 41,8 km/h (6 Bft) 95,92 %
27.12.2016 13:32 3,7 C 77 % 1035,6 hPa 0,0 l/m 23,4 km/h (4 Bft) W-SW 243 0 min 0,000 mm 0,0 UV-I 58 W/m 0,1 C -6,2 C 33,8 km/h (5 Bft) 97,37 %
27.12.2016 13:34 3,8 C 76 % 1035,6 hPa 0,0 l/m 26,0 km/h (4 Bft) W-SW 240 0 min 0,000 mm 0,0 UV-I 63 W/m -0,0 C -6,9 C 38,6 km/h (5 Bft) 93,62 %
27.12.2016 13:36 3,8 C 77 % 1035,6 hPa 0,0 l/m 20,4 km/h (4 Bft) W-SW 237 0 min 0,000 mm 0,0 UV-I 67 W/m 0,1 C -4,9 C 29,0 km/h (5 Bft) 95,74 %
27.12.2016 13:38 3,8 C 77 % 1035,5 hPa 0,0 l/m 21,4 km/h (4 Bft) W 276 0 min 0,000 mm 0,0 UV-I 61 W/m 0,1 C -5,3 C 40,2 km/h (6 Bft) 97,87 %
27.12.2016 13:40 3,8 C 76 % 1035,4 hPa 0,0 l/m 24,2 km/h (4 Bft) W-SW 246 0 min 0,000 mm 0,0 UV-I 77 W/m -0,0 C -6,3 C 40,2 km/h (6 Bft) 93,62 %
27.12.2016 13:42 3,8 C 76 % 1035,3 hPa 0,0 l/m 21,3 km/h (4 Bft) W-SW 256 0 min 0,000 mm 0,0 UV-I 101 W/m -0,0 C -5,2 C 32,2 km/h (5 Bft) 95,74 %
27.12.2016 13:44 3,9 C 77 % 1035,4 hPa 0,0 l/m 21,7 km/h (4 Bft) W-SW 252 0 min 0,000 mm 0,0 UV-I 98 W/m 0,2 C -5,3 C 29,0 km/h (5 Bft) 98,00 %
27.12.2016 13:46 3,9 C 76 % 1035,5 hPa 0,0 l/m 21,7 km/h (4 Bft) W 269 0 min 0,000 mm 0,0 UV-I 82 W/m 0,1 C -5,3 C 30,6 km/h (5 Bft) 100,00 %
27.12.2016 13:48 3,9 C 76 % 1035,4 hPa 0,0 l/m 20,1 km/h (4 Bft) W-SW 248 0 min 0,000 mm 0,0 UV-I 70 W/m 0,1 C -4,6 C 32,2 km/h (5 Bft) 100,00 %
27.12.2016 13:50 3,9 C 76 % 1035,4 hPa 0,0 l/m 22,8 km/h (4 Bft) W 261 0 min 0,000 mm 0,0 UV-I 65 W/m 0,1 C -5,7 C 33,8 km/h (5 Bft) 100,00 %
27.12.2016 13:52 3,9 C 76 % 1035,5 hPa 0,0 l/m 23,5 km/h (4 Bft) W 261 0 min 0,000 mm 0,0 UV-I 63 W/m 0,1 C -5,9 C 32,2 km/h (5 Bft) 97,87 %
27.12.2016 13:54 4,0 C 76 % 1035,4 hPa 0,0 l/m 27,6 km/h (4 Bft) W 261 0 min 0,000 mm 0,0 UV-I 60 W/m 0,2 C -7,1 C 37,0 km/h (5 Bft) 97,87 %
27.12.2016 13:56 4,0 C 76 % 1035,5 hPa 0,0 l/m 20,2 km/h (4 Bft) W 262 0 min 0,000 mm 0,0 UV-I 48 W/m 0,2 C -4,5 C 29,0 km/h (5 Bft) 95,74 %
27.12.2016 13:58 4,0 C 75 % 1035,5 hPa 0,0 l/m 24,3 km/h (4 Bft) W-NW 293 0 min 0,000 mm 0,0 UV-I 33 W/m -0,0 C -6,1 C 41,8 km/h (6 Bft) 100,00 %
27.12.2016 14:00 4,0 C 75 % 1035,4 hPa 0,0 l/m 20,7 km/h (4 Bft) W-SW 246 0 min 0,050 mm 0,0 UV-I 29 W/m -0,0 C -4,7 C 30,6 km/h (5 Bft) 100,00 %
27.12.2016 14:02 4,0 C 75 % 1035,5 hPa 0,0 l/m 24,3 km/h (4 Bft) W-SW 251 0 min 0,000 mm 0,0 UV-I 26 W/m -0,0 C -6,1 C 33,8 km/h (5 Bft) 97,87 %
27.12.2016 14:04 3,9 C 75 % 1035,5 hPa 0,0 l/m 22,4 km/h (4 Bft) W-SW 255 0 min 0,000 mm 0,0 UV-I 30 W/m -0,1 C -5,5 C 38,6 km/h (5 Bft) 94,87 %
27.12.2016 14:06 4,0 C 76 % 1035,5 hPa 0,0 l/m 19,2 km/h (3 Bft) W 269 0 min 0,000 mm 0,0 UV-I 47 W/m 0,2 C -4,1 C 32,2 km/h (5 Bft) 100,00 %
27.12.2016 14:08 3,9 C 76 % 1035,5 hPa 0,0 l/m 23,8 km/h (4 Bft) W-SW 240 0 min 0,000 mm 0,0 UV-I 61 W/m 0,1 C -6,0 C 35,4 km/h (5 Bft) 100,00 %
27.12.2016 14:10 3,9 C 76 % 1035,6 hPa 0,0 l/m 22,2 km/h (4 Bft) W 275 0 min 0,000 mm 0,0 UV-I 85 W/m 0,1 C -5,5 C 30,6 km/h (5 Bft) 98,00 %
27.12.2016 14:12 4,0 C 76 % 1035,4 hPa 0,0 l/m 18,4 km/h (3 Bft) W-SW 247 0 min 0,000 mm 0,0 UV-I 110 W/m 0,2 C -3,8 C 25,7 km/h (4 Bft) 98,00 %
27.12.2016 14:14 4,0 C 75 % 1035,5 hPa 0,0 l/m 26,4 km/h (4 Bft) W-SW 251 2 min 0,000 mm 0,0 UV-I 135 W/m -0,0 C -6,7 C 43,5 km/h (6 Bft) 100,00 %
27.12.2016 14:16 4,1 C 76 % 1035,6 hPa 0,0 l/m 18,1 km/h (3 Bft) W-SW 242 2 min 0,000 mm 0,0 UV-I 235 W/m 0,3 C -3,5 C 33,8 km/h (5 Bft) 97,14 %
27.12.2016 14:18 4,2 C 76 % 1035,7 hPa 0,0 l/m 18,3 km/h (3 Bft) W-SW 252 0 min 0,000 mm 0,0 UV-I 111 W/m 0,4 C -3,5 C 30,6 km/h (5 Bft) 100,00 %
27.12.2016 14:20 4,2 C 76 % 1035,6 hPa 0,0 l/m 17,5 km/h (3 Bft) W 280 2 min 0,000 mm 0,0 UV-I 148 W/m 0,4 C -3,1 C 24,1 km/h (4 Bft) 97,87 %
27.12.2016 14:22 4,2 C 75 % 1035,6 hPa 0,0 l/m 22,7 km/h (4 Bft) W-NW 288 0 min 0,000 mm 0,0 UV-I 82 W/m 0,2 C -5,2 C 41,8 km/h (6 Bft) 96,00 %
27.12.2016 14:24 4,2 C 76 % 1035,7 hPa 0,0 l/m 19,6 km/h (3 Bft) W-SW 248 0 min 0,000 mm 0,0 UV-I 57 W/m 0,4 C -4,0 C 33,8 km/h (5 Bft) 100,00 %
27.12.2016 14:26 4,2 C 75 % 1035,7 hPa 0,0 l/m 23,7 km/h (4 Bft) W-SW 240 0 min 0,000 mm 0,0 UV-I 50 W/m 0,2 C -5,6 C 37,0 km/h (5 Bft) 97,87 %
27.12.2016 14:28 4,2 C 75 % 1035,8 hPa 0,0 l/m 24,1 km/h (4 Bft) W-SW 249 0 min 0,000 mm 0,0 UV-I 53 W/m 0,2 C -5,7 C 38,6 km/h (5 Bft) 100,00 %
27.12.2016 14:30 4,2 C 75 % 1035,7 hPa 0,0 l/m 21,6 km/h (4 Bft) W-SW 248 0 min 0,000 mm 0,0 UV-I 52 W/m 0,2 C -4,8 C 32,2 km/h (5 Bft) 100,00 %
27.12.2016 14:32 4,2 C 75 % 1035,6 hPa 0,0 l/m 24,9 km/h (4 Bft) W 260 0 min 0,000 mm 0,0 UV-I 46 W/m 0,2 C -6,0 C 41,8 km/h (6 Bft) 100,00 %
27.12.2016 14:34 4,1 C 75 % 1035,6 hPa 0,0 l/m 25,3 km/h (4 Bft) W 261 0 min 0,000 mm 0,0 UV-I 40 W/m 0,1 C -6,3 C 40,2 km/h (6 Bft) 100,00 %
27.12.2016 14:36 4,1 C 75 % 1035,6 hPa 0,0 l/m 23,6 km/h (4 Bft) W-SW 241 0 min 0,000 mm 0,0 UV-I 42 W/m 0,1 C -5,7 C 40,2 km/h (6 Bft) 100,00 %
27.12.2016 14:38 4,1 C 75 % 1035,7 hPa 0,0 l/m 27,5 km/h (4 Bft) W-SW 252 0 min 0,000 mm 0,0 UV-I 54 W/m 0,1 C -6,9 C 38,6 km/h (5 Bft) 100,00 %
27.12.2016 14:40 4,1 C 76 % 1035,7 hPa 0,0 l/m 21,2 km/h (4 Bft) SW 227 0 min 0,000 mm 0,0 UV-I 65 W/m 0,3 C -4,8 C 32,2 km/h (5 Bft) 100,00 %
27.12.2016 14:42 4,1 C 75 % 1035,8 hPa 0,0 l/m 24,2 km/h (4 Bft) SW 233 0 min 0,000 mm 0,0 UV-I 61 W/m 0,1 C -5,9 C 40,2 km/h (6 Bft) 97,87 %
27.12.2016 14:44 4,1 C 76 % 1035,8 hPa 0,0 l/m 24,1 km/h (4 Bft) W-SW 254 0 min 0,000 mm 0,0 UV-I 51 W/m 0,3 C -5,9 C 43,5 km/h (6 Bft) 100,00 %
27.12.2016 14:46 4,1 C 76 % 1035,8 hPa 0,0 l/m 25,6 km/h (4 Bft) W-SW 257 0 min 0,000 mm 0,0 UV-I 59 W/m 0,3 C -6,4 C 40,2 km/h (6 Bft) 98,00 %
27.12.2016 14:48 4,1 C 76 % 1035,9 hPa 0,0 l/m 22,2 km/h (4 Bft) W-SW 244 0 min 0,000 mm 0,0 UV-I 58 W/m 0,3 C -5,2 C 37,0 km/h (5 Bft) 97,96 %
27.12.2016 14:50 4,1 C 76 % 1035,9 hPa 0,0 l/m 19,3 km/h (3 Bft) W 281 0 min 0,000 mm 0,0 UV-I 52 W/m 0,3 C -4,0 C 35,4 km/h (5 Bft) 100,00 %
27.12.2016 14:52 4,1 C 76 % 1035,8 hPa 0,0 l/m 25,0 km/h (4 Bft) W 274 0 min 0,000 mm 0,0 UV-I 53 W/m 0,3 C -6,2 C 45,1 km/h (6 Bft) 95,74 %
27.12.2016 14:54 4,1 C 76 % 1036,0 hPa 0,0 l/m 22,5 km/h (4 Bft) W 261 0 min 0,000 mm 0,0 UV-I 58 W/m 0,3 C -5,3 C 40,2 km/h (6 Bft) 100,00 %
27.12.2016 14:56 4,1 C 76 % 1035,9 hPa 0,0 l/m 24,2 km/h (4 Bft) W-SW 247 0 min 0,000 mm 0,0 UV-I 63 W/m 0,3 C -5,9 C 38,6 km/h (5 Bft) 100,00 %
27.12.2016 14:58 4,1 C 76 % 1035,8 hPa 0,0 l/m 23,0 km/h (4 Bft) W-SW 255 0 min 0,000 mm 0,0 UV-I 58 W/m 0,3 C -5,5 C 41,8 km/h (6 Bft) 100,00 %
27.12.2016 15:00 4,1 C 76 % 1035,7 hPa 0,0 l/m 28,8 km/h (4 Bft) SW 221 0 min 0,000 mm 0,0 UV-I 55 W/m 0,3 C -7,3 C 40,2 km/h (6 Bft) 97,87 %
27.12.2016 15:02 4,1 C 76 % 1035,7 hPa 0,0 l/m 30,1 km/h (5 Bft) W 259 0 min 0,077 mm 0,0 UV-I 57 W/m 0,3 C -7,7 C 46,7 km/h (6 Bft) 97,87 %
27.12.2016 15:04 4,1 C 76 % 1035,6 hPa 0,0 l/m 26,7 km/h (4 Bft) W-SW 244 0 min 0,000 mm 0,0 UV-I 62 W/m 0,3 C -6,7 C 38,6 km/h (5 Bft) 100,00 %
27.12.2016 15:06 4,1 C 76 % 1035,7 hPa 0,0 l/m 20,4 km/h (4 Bft) W-SW 246 0 min 0,000 mm 0,0 UV-I 66 W/m 0,3 C -4,5 C 27,4 km/h (4 Bft) 100,00 %
27.12.2016 15:08 4,0 C 76 % 1035,7 hPa 0,0 l/m 21,2 km/h (4 Bft) W 261 0 min 0,000 mm 0,0 UV-I 63 W/m 0,2 C -4,9 C 37,0 km/h (5 Bft) 100,00 %
27.12.2016 15:10 4,0 C 76 % 1035,8 hPa 0,0 l/m 24,7 km/h (4 Bft) SW 221 0 min 0,000 mm 0,0 UV-I 60 W/m 0,2 C -6,2 C 37,0 km/h (5 Bft) 100,00 %
27.12.2016 15:12 4,0 C 76 % 1035,9 hPa 0,0 l/m 25,3 km/h (4 Bft) W-SW 244 0 min 0,000 mm 0,0 UV-I 66 W/m 0,2 C -6,4 C 41,8 km/h (6 Bft) 97,87 %
27.12.2016 15:14 4,1 C 76 % 1036,0 hPa 0,0 l/m 20,4 km/h (4 Bft) W 273 0 min 0,000 mm 0,0 UV-I 61 W/m 0,3 C -4,5 C 30,6 km/h (5 Bft) 98,00 %
27.12.2016 15:16 4,0 C 76 % 1036,1 hPa 0,0 l/m 28,3 km/h (4 Bft) W-SW 240 0 min 0,000 mm 0,0 UV-I 55 W/m 0,2 C -7,3 C 41,8 km/h (6 Bft) 98,00 %
27.12.2016 15:18 4,1 C 76 % 1036,2 hPa 0,0 l/m 23,1 km/h (4 Bft) W 275 0 min 0,000 mm 0,0 UV-I 50 W/m 0,3 C -5,5 C 32,2 km/h (5 Bft) 97,22 %
27.12.2016 15:20 4,1 C 77 % 1036,1 hPa 0,0 l/m 21,5 km/h (4 Bft) W-SW 257 0 min 0,000 mm 0,0 UV-I 38 W/m 0,4 C -4,9 C 37,0 km/h (5 Bft) 98,00 %
27.12.2016 15:22 4,1 C 76 % 1036,0 hPa 0,0 l/m 24,2 km/h (4 Bft) W-SW 245 0 min 0,000 mm 0,0 UV-I 31 W/m 0,3 C -5,9 C 33,8 km/h (5 Bft) 97,87 %
27.12.2016 15:24 4,0 C 76 % 1036,0 hPa 0,0 l/m 24,1 km/h (4 Bft) W 263 0 min 0,000 mm 0,0 UV-I 27 W/m 0,2 C -6,0 C 38,6 km/h (5 Bft) 96,08 %
27.12.2016 15:26 4,0 C 76 % 1036,1 hPa 0,0 l/m 15,4 km/h (3 Bft) W 266 0 min 0,000 mm 0,0 UV-I 26 W/m 0,2 C -2,3 C 19,3 km/h (3 Bft) 97,87 %
27.12.2016 15:28 4,0 C 76 % 1036,2 hPa 0,0 l/m 26,2 km/h (4 Bft) W-SW 250 0 min 0,000 mm 0,0 UV-I 20 W/m 0,2 C -6,7 C 37,0 km/h (5 Bft) 93,62 %
27.12.2016 15:30 4,0 C 76 % 1036,3 hPa 0,0 l/m 24,1 km/h (4 Bft) W-SW 250 0 min 0,000 mm 0,0 UV-I 19 W/m 0,2 C -6,0 C 35,4 km/h (5 Bft) 95,74 %
27.12.2016 15:32 4,0 C 77 % 1036,2 hPa 0,0 l/m 18,9 km/h (3 Bft) W-SW 252 0 min 0,000 mm 0,0 UV-I 14 W/m 0,3 C -4,0 C 33,8 km/h (5 Bft) 95,74 %
27.12.2016 15:34 4,0 C 77 % 1036,2 hPa 0,0 l/m 19,0 km/h (3 Bft) W-SW 248 0 min 0,000 mm 0,0 UV-I 13 W/m 0,3 C -4,0 C 29,0 km/h (5 Bft) 97,87 %
27.12.2016 15:36 4,0 C 76 % 1036,3 hPa 0,0 l/m 25,2 km/h (4 Bft) W-SW 238 0 min 0,000 mm 0,0 UV-I 12 W/m 0,2 C -6,4 C 37,0 km/h (5 Bft) 97,87 %
27.12.2016 15:38 4,0 C 76 % 1036,2 hPa 0,0 l/m 23,1 km/h (4 Bft) W-SW 241 0 min 0,000 mm 0,0 UV-I 12 W/m 0,2 C -5,6 C 30,6 km/h (5 Bft) 97,87 %
27.12.2016 15:40 4,0 C 76 % 1036,2 hPa 0,0 l/m 20,3 km/h (4 Bft) W-SW 238 0 min 0,000 mm 0,0 UV-I 12 W/m 0,2 C -4,6 C 27,4 km/h (4 Bft) 93,62 %
27.12.2016 15:42 4,0 C 76 % 1036,2 hPa 0,0 l/m 21,0 km/h (4 Bft) SW 215 0 min 0,000 mm 0,0 UV-I 11 W/m 0,2 C -4,9 C 32,2 km/h (5 Bft) 97,87 %
27.12.2016 15:44 4,0 C 76 % 1036,1 hPa 0,0 l/m 22,2 km/h (4 Bft) W-SW 250 0 min 0,000 mm 0,0 UV-I 12 W/m 0,2 C -5,3 C 38,6 km/h (5 Bft) 97,87 %
27.12.2016 15:46 4,0 C 76 % 1036,1 hPa 0,0 l/m 23,5 km/h (4 Bft) W 275 0 min 0,000 mm 0,0 UV-I 12 W/m 0,2 C -5,8 C 40,2 km/h (6 Bft) 92,11 %
27.12.2016 15:48 4,0 C 76 % 1036,2 hPa 0,0 l/m 23,4 km/h (4 Bft) W 260 0 min 0,000 mm 0,0 UV-I 9 W/m 0,2 C -5,8 C 41,8 km/h (6 Bft) 98,00 %
27.12.2016 15:50 4,0 C 76 % 1036,2 hPa 0,0 l/m 20,0 km/h (4 Bft) SW 222 0 min 0,000 mm 0,0 UV-I 6 W/m 0,2 C -4,5 C 29,0 km/h (5 Bft) 98,00 %
27.12.2016 15:52 4,0 C 76 % 1036,2 hPa 0,0 l/m 22,5 km/h (4 Bft) SW 226 0 min 0,000 mm 0,0 UV-I 7 W/m 0,2 C -5,4 C 33,8 km/h (5 Bft) 100,00 %
27.12.2016 15:54 4,0 C 76 % 1036,2 hPa 0,0 l/m 16,4 km/h (3 Bft) W 279 0 min 0,000 mm 0,0 UV-I 9 W/m 0,2 C -2,8 C 20,9 km/h (4 Bft) 97,87 %
27.12.2016 15:56 4,0 C 76 % 1036,2 hPa 0,0 l/m 18,4 km/h (3 Bft) SW 236 0 min 0,000 mm 0,0 UV-I 7 W/m 0,2 C -3,8 C 29,0 km/h (5 Bft) 95,74 %
27.12.2016 15:58 4,0 C 76 % 1036,3 hPa 0,0 l/m 23,6 km/h (4 Bft) W-SW 250 0 min 0,000 mm 0,0 UV-I 7 W/m 0,2 C -5,8 C 35,4 km/h (5 Bft) 97,87 %
27.12.2016 16:00 4,0 C 76 % 1036,3 hPa 0,0 l/m 23,6 km/h (4 Bft) W-SW 240 0 min 0,050 mm 0,0 UV-I 7 W/m 0,2 C -5,8 C 33,8 km/h (5 Bft) 100,00 %
27.12.2016 16:02 4,0 C 76 % 1036,3 hPa 0,0 l/m 23,1 km/h (4 Bft) W 267 0 min 0,000 mm 0,0 UV-I 7 W/m 0,2 C -5,6 C 33,8 km/h (5 Bft) 97,22 %
27.12.2016 16:04 4,0 C 76 % 1036,3 hPa 0,0 l/m 23,4 km/h (4 Bft) W-SW 246 0 min 0,000 mm 0,0 UV-I 7 W/m 0,2 C -5,8 C 35,4 km/h (5 Bft) 100,00 %
27.12.2016 16:06 4,0 C 76 % 1036,3 hPa 0,0 l/m 25,4 km/h (4 Bft) W 261 0 min 0,000 mm 0,0 UV-I 5 W/m 0,2 C -6,4 C 41,8 km/h (6 Bft) 95,74 %
27.12.2016 16:08 4,1 C 76 % 1036,2 hPa 0,0 l/m 22,4 km/h (4 Bft) SW 234 0 min 0,000 mm 0,0 UV-I 5 W/m 0,3 C -5,3 C 38,6 km/h (5 Bft) 100,00 %
27.12.2016 16:10 4,1 C 76 % 1036,1 hPa 0,0 l/m 24,3 km/h (4 Bft) W-SW 242 0 min 0,000 mm 0,0 UV-I 5 W/m 0,3 C -5,9 C 43,5 km/h (6 Bft) 100,00 %
27.12.2016 16:12 4,0 C 76 % 1036,1 hPa 0,0 l/m 21,7 km/h (4 Bft) W-SW 240 0 min 0,000 mm 0,0 UV-I 5 W/m 0,2 C -5,1 C 33,8 km/h (5 Bft) 100,00 %
27.12.2016 16:14 4,1 C 76 % 1036,1 hPa 0,0 l/m 23,2 km/h (4 Bft) W 261 0 min 0,000 mm 0,0 UV-I 2 W/m 0,3 C -5,6 C 35,4 km/h (5 Bft) 97,92 %
27.12.2016 16:16 4,0 C 76 % 1036,1 hPa 0,0 l/m 22,8 km/h (4 Bft) W-SW 251 0 min 0,000 mm 0,0 UV-I 0 W/m 0,2 C -5,5 C 37,0 km/h (5 Bft) 100,00 %
27.12.2016 16:18 4,0 C 76 % 1036,1 hPa 0,0 l/m 25,9 km/h (4 Bft) W 272 0 min 0,000 mm 0,0 UV-I 2 W/m 0,2 C -6,6 C 40,2 km/h (6 Bft) 100,00 %
27.12.2016 16:20 4,0 C 75 % 1036,0 hPa 0,0 l/m 25,6 km/h (4 Bft) W-SW 250 0 min 0,000 mm 0,0 UV-I 0 W/m -0,0 C -6,5 C 35,4 km/h (5 Bft) 97,87 %
27.12.2016 16:22 4,1 C 75 % 1036,1 hPa 0,0 l/m 28,9 km/h (5 Bft) SW 219 0 min 0,000 mm 0,0 UV-I 0 W/m 0,1 C -7,3 C 35,4 km/h (5 Bft) 100,00 %
27.12.2016 16:24 4,1 C 75 % 1036,1 hPa 0,0 l/m 26,7 km/h (4 Bft) W 260 0 min 0,000 mm 0,0 UV-I 0 W/m 0,1 C -6,7 C 40,2 km/h (6 Bft) 100,00 %
27.12.2016 16:26 4,1 C 76 % 1036,1 hPa 0,0 l/m 22,5 km/h (4 Bft) W-SW 249 0 min 0,000 mm 0,0 UV-I 0 W/m 0,3 C -5,3 C 40,2 km/h (6 Bft) 100,00 %
27.12.2016 16:28 4,0 C 76 % 1036,1 hPa 0,0 l/m 23,3 km/h (4 Bft) SW 232 0 min 0,000 mm 0,0 UV-I 0 W/m 0,2 C -5,7 C 38,6 km/h (5 Bft) 100,00 %
27.12.2016 16:30 4,0 C 76 % 1036,0 hPa 0,0 l/m 22,8 km/h (4 Bft) W-SW 247 0 min 0,000 mm 0,0 UV-I 0 W/m 0,2 C -5,5 C 33,8 km/h (5 Bft) 100,00 %
27.12.2016 16:32 4,0 C 76 % 1036,0 hPa 0,0 l/m 24,6 km/h (4 Bft) SW 214 0 min 0,000 mm 0,0 UV-I 0 W/m 0,2 C -6,2 C 37,0 km/h (5 Bft) 100,00 %
27.12.2016 16:34 4,0 C 76 % 1036,1 hPa 0,0 l/m 28,8 km/h (4 Bft) W-SW 252 0 min 0,000 mm 0,0 UV-I 0 W/m 0,2 C -7,5 C 43,5 km/h (6 Bft) 100,00 %
27.12.2016 16:36 4,0 C 76 % 1036,1 hPa 0,0 l/m 25,3 km/h (4 Bft) W-SW 251 0 min 0,000 mm 0,0 UV-I 0 W/m 0,2 C -6,4 C 41,8 km/h (6 Bft) 100,00 %
27.12.2016 16:38 4,0 C 76 % 1036,1 hPa 0,0 l/m 25,2 km/h (4 Bft) W 269 0 min 0,000 mm 0,0 UV-I 0 W/m 0,2 C -6,4 C 33,8 km/h (5 Bft) 100,00 %
27.12.2016 16:40 4,0 C 76 % 1036,1 hPa 0,0 l/m 27,6 km/h (4 Bft) W 259 0 min 0,000 mm 0,0 UV-I 0 W/m 0,2 C -7,1 C 40,2 km/h (6 Bft) 100,00 %
27.12.2016 16:42 4,0 C 76 % 1036,0 hPa 0,0 l/m 24,0 km/h (4 Bft) W 279 0 min 0,000 mm 0,0 UV-I 0 W/m 0,2 C -6,0 C 33,8 km/h (5 Bft) 97,87 %
27.12.2016 16:44 4,0 C 76 % 1035,9 hPa 0,0 l/m 27,7 km/h (4 Bft) W-SW 249 0 min 0,000 mm 0,0 UV-I 0 W/m 0,2 C -7,1 C 46,7 km/h (6 Bft) 100,00 %
27.12.2016 16:46 3,9 C 76 % 1036,0 hPa 0,0 l/m 25,1 km/h (4 Bft) W 271 0 min 0,000 mm 0,0 UV-I 0 W/m 0,1 C -6,5 C 37,0 km/h (5 Bft) 100,00 %
27.12.2016 16:48 3,9 C 76 % 1036,1 hPa 0,0 l/m 22,5 km/h (4 Bft) W-SW 246 0 min 0,000 mm 0,0 UV-I 0 W/m 0,1 C -5,6 C 33,8 km/h (5 Bft) 100,00 %
27.12.2016 16:50 3,9 C 77 % 1036,3 hPa 0,0 l/m 22,5 km/h (4 Bft) W-SW 252 0 min 0,000 mm 0,0 UV-I 0 W/m 0,2 C -5,6 C 30,6 km/h (5 Bft) 100,00 %
27.12.2016 16:52 3,9 C 77 % 1036,2 hPa 0,0 l/m 22,4 km/h (4 Bft) W-SW 256 0 min 0,000 mm 0,0 UV-I 0 W/m 0,2 C -5,5 C 32,2 km/h (5 Bft) 100,00 %
27.12.2016 16:54 3,9 C 77 % 1036,1 hPa 0,0 l/m 28,4 km/h (4 Bft) W 259 0 min 0,000 mm 0,0 UV-I 0 W/m 0,2 C -7,5 C 43,5 km/h (6 Bft) 97,87 %
27.12.2016 16:56 3,9 C 76 % 1036,2 hPa 0,0 l/m 25,5 km/h (4 Bft) W-NW 290 0 min 0,000 mm 0,0 UV-I 0 W/m 0,1 C -6,6 C 40,2 km/h (6 Bft) 100,00 %
27.12.2016 16:58 3,9 C 77 % 1036,2 hPa 0,0 l/m 21,1 km/h (4 Bft) W-SW 242 0 min 0,000 mm 0,0 UV-I 0 W/m 0,2 C -5,0 C 33,8 km/h (5 Bft) 100,00 %
27.12.2016 17:00 3,9 C 77 % 1036,2 hPa 0,0 l/m 21,8 km/h (4 Bft) W-SW 238 0 min 0,000 mm 0,0 UV-I 0 W/m 0,2 C -5,3 C 29,0 km/h (5 Bft) 97,87 %
27.12.2016 17:02 3,9 C 77 % 1036,3 hPa 0,0 l/m 16,9 km/h (3 Bft) W 281 0 min 0,051 mm 0,0 UV-I 0 W/m 0,2 C -3,2 C 20,9 km/h (4 Bft) 97,37 %
27.12.2016 17:04 3,9 C 77 % 1036,2 hPa 0,0 l/m 18,2 km/h (3 Bft) W-SW 255 0 min 0,000 mm 0,0 UV-I 0 W/m 0,2 C -3,8 C 24,1 km/h (4 Bft) 100,00 %
27.12.2016 17:06 3,9 C 77 % 1036,3 hPa 0,0 l/m 18,0 km/h (3 Bft) W-SW 237 0 min 0,000 mm 0,0 UV-I 0 W/m 0,2 C -3,7 C 29,0 km/h (5 Bft) 97,87 %
27.12.2016 17:08 3,8 C 77 % 1036,4 hPa 0,0 l/m 20,3 km/h (4 Bft) W-SW 243 0 min 0,000 mm 0,0 UV-I 0 W/m 0,1 C -4,8 C 33,8 km/h (5 Bft) 95,74 %
27.12.2016 17:10 3,8 C 77 % 1036,2 hPa 0,0 l/m 23,6 km/h (4 Bft) W-SW 251 0 min 0,000 mm 0,0 UV-I 0 W/m 0,1 C -6,1 C 35,4 km/h (5 Bft) 100,00 %
27.12.2016 17:12 3,8 C 77 % 1036,2 hPa 0,0 l/m 25,1 km/h (4 Bft) W-SW 256 0 min 0,000 mm 0,0 UV-I 0 W/m 0,1 C -6,6 C 33,8 km/h (5 Bft) 100,00 %
27.12.2016 17:14 3,8 C 78 % 1036,3 hPa 0,0 l/m 20,8 km/h (4 Bft) W-SW 258 0 min 0,000 mm 0,0 UV-I 0 W/m 0,3 C -5,0 C 30,6 km/h (5 Bft) 100,00 %
27.12.2016 17:16 3,8 C 78 % 1036,2 hPa 0,0 l/m 22,6 km/h (4 Bft) W-NW 282 0 min 0,000 mm 0,0 UV-I 0 W/m 0,3 C -5,7 C 38,6 km/h (5 Bft) 97,87 %
27.12.2016 17:18 3,8 C 78 % 1036,2 hPa 0,0 l/m 22,3 km/h (4 Bft) W 274 0 min 0,000 mm 0,0 UV-I 0 W/m 0,3 C -5,6 C 33,8 km/h (5 Bft) 100,00 %
27.12.2016 17:20 3,8 C 78 % 1036,2 hPa 0,0 l/m 21,1 km/h (4 Bft) W-SW 253 0 min 0,000 mm 0,0 UV-I 0 W/m 0,3 C -5,2 C 29,0 km/h (5 Bft) 100,00 %
27.12.2016 17:22 3,8 C 78 % 1036,3 hPa 0,0 l/m 22,4 km/h (4 Bft) W-SW 244 0 min 0,000 mm 0,0 UV-I 0 W/m 0,3 C -5,7 C 33,8 km/h (5 Bft) 98,00 %
27.12.2016 17:24 3,8 C 78 % 1036,3 hPa 0,0 l/m 21,0 km/h (4 Bft) W 273 0 min 0,000 mm 0,0 UV-I 0 W/m 0,3 C -5,1 C 29,0 km/h (5 Bft) 97,87 %
27.12.2016 17:26 3,8 C 78 % 1036,2 hPa 0,0 l/m 20,4 km/h (4 Bft) SW 223 0 min 0,000 mm 0,0 UV-I 0 W/m 0,3 C -4,9 C 35,4 km/h (5 Bft) 93,88 %
27.12.2016 17:28 3,8 C 78 % 1036,2 hPa 0,0 l/m 21,9 km/h (4 Bft) W-SW 255 0 min 0,000 mm 0,0 UV-I 0 W/m 0,3 C -5,5 C 33,8 km/h (5 Bft) 98,00 %
27.12.2016 17:30 3,8 C 78 % 1036,3 hPa 0,0 l/m 23,0 km/h (4 Bft) W-SW 256 0 min 0,000 mm 0,0 UV-I 0 W/m 0,3 C -5,9 C 32,2 km/h (5 Bft) 98,00 %
27.12.2016 17:32 3,8 C 78 % 1036,3 hPa 0,0 l/m 24,4 km/h (4 Bft) W 267 0 min 0,000 mm 0,0 UV-I 0 W/m 0,3 C -6,4 C 35,4 km/h (5 Bft) 95,65 %
27.12.2016 17:34 3,8 C 78 % 1036,3 hPa 0,0 l/m 23,6 km/h (4 Bft) W-SW 242 0 min 0,000 mm 0,0 UV-I 0 W/m 0,3 C -6,1 C 30,6 km/h (5 Bft) 93,55 %
27.12.2016 17:36 3,8 C 78 % 1036,2 hPa 0,0 l/m 23,4 km/h (4 Bft) W 261 0 min 0,000 mm 0,0 UV-I 0 W/m 0,3 C -6,0 C 32,2 km/h (5 Bft) 98,00 %
27.12.2016 17:38 3,8 C 78 % 1036,3 hPa 0,0 l/m 22,8 km/h (4 Bft) W-SW 244 0 min 0,000 mm 0,0 UV-I 0 W/m 0,3 C -5,8 C 33,8 km/h (5 Bft) 97,87 %
27.12.2016 17:40 3,8 C 77 % 1036,4 hPa 0,0 l/m 23,9 km/h (4 Bft) W 275 0 min 0,000 mm 0,0 UV-I 0 W/m 0,1 C -6,2 C 37,0 km/h (5 Bft) 97,87 %
27.12.2016 17:42 3,8 C 77 % 1036,3 hPa 0,0 l/m 21,6 km/h (4 Bft) W-SW 257 0 min 0,000 mm 0,0 UV-I 0 W/m 0,1 C -5,4 C 30,6 km/h (5 Bft) 93,62 %
27.12.2016 17:44 3,8 C 77 % 1036,5 hPa 0,0 l/m 21,1 km/h (4 Bft) W-SW 242 0 min 0,000 mm 0,0 UV-I 0 W/m 0,1 C -5,2 C 32,2 km/h (5 Bft) 96,00 %
27.12.2016 17:46 3,9 C 77 % 1036,5 hPa 0,0 l/m 23,2 km/h (4 Bft) W 265 0 min 0,000 mm 0,0 UV-I 0 W/m 0,2 C -5,8 C 41,8 km/h (6 Bft) 94,74 %
27.12.2016 17:48 3,9 C 77 % 1036,4 hPa 0,0 l/m 18,4 km/h (3 Bft) W-SW 246 0 min 0,000 mm 0,0 UV-I 0 W/m 0,2 C -3,9 C 40,2 km/h (6 Bft) 97,87 %
27.12.2016 17:50 3,9 C 77 % 1036,6 hPa 0,0 l/m 17,5 km/h (3 Bft) W 273 0 min 0,000 mm 0,0 UV-I 0 W/m 0,2 C -3,5 C 32,2 km/h (5 Bft) 97,87 %
27.12.2016 17:52 3,9 C 77 % 1036,3 hPa 0,0 l/m 19,1 km/h (3 Bft) W-NW 290 0 min 0,000 mm 0,0 UV-I 0 W/m 0,2 C -4,2 C 29,0 km/h (5 Bft) 97,87 %
27.12.2016 17:54 3,9 C 77 % 1036,5 hPa 0,0 l/m 15,5 km/h (3 Bft) W-NW 287 0 min 0,000 mm 0,0 UV-I 0 W/m 0,2 C -2,5 C 25,7 km/h (4 Bft) 97,87 %
27.12.2016 17:56 3,9 C 77 % 1036,6 hPa 0,0 l/m 22,5 km/h (4 Bft) W-SW 256 0 min 0,000 mm 0,0 UV-I 0 W/m 0,2 C -5,6 C 45,1 km/h (6 Bft) 97,87 %
27.12.2016 17:58 3,9 C 76 % 1036,5 hPa 0,0 l/m 23,3 km/h (4 Bft) SW 227 0 min 0,000 mm 0,0 UV-I 0 W/m 0,1 C -5,9 C 33,8 km/h (5 Bft) 97,92 %
27.12.2016 18:00 4,0 C 76 % 1036,6 hPa 0,0 l/m 23,0 km/h (4 Bft) S-SO 158 0 min 0,000 mm 0,0 UV-I 0 W/m 0,2 C -5,6 C 35,4 km/h (5 Bft) 100,00 %
27.12.2016 18:02 4,0 C 76 % 1036,7 hPa 0,0 l/m 20,8 km/h (4 Bft) W-SW 252 0 min 0,051 mm 0,0 UV-I 0 W/m 0,2 C -4,8 C 35,4 km/h (5 Bft) 97,87 %
27.12.2016 18:04 4,1 C 75 % 1036,7 hPa 0,0 l/m 23,0 km/h (4 Bft) W-SW 242 0 min 0,000 mm 0,0 UV-I 0 W/m 0,1 C -5,5 C 33,8 km/h (5 Bft) 100,00 %
27.12.2016 18:06 4,1 C 76 % 1036,7 hPa 0,0 l/m 18,1 km/h (3 Bft) W 261 0 min 0,000 mm 0,0 UV-I 0 W/m 0,3 C -3,5 C 40,2 km/h (6 Bft) 100,00 %
27.12.2016 18:08 4,1 C 76 % 1036,7 hPa 0,0 l/m 23,5 km/h (4 Bft) W 264 0 min 0,000 mm 0,0 UV-I 0 W/m 0,3 C -5,7 C 33,8 km/h (5 Bft) 97,87 %
27.12.2016 18:10 4,1 C 76 % 1036,8 hPa 0,0 l/m 23,9 km/h (4 Bft) W-SW 254 0 min 0,000 mm 0,0 UV-I 0 W/m 0,3 C -5,8 C 37,0 km/h (5 Bft) 97,87 %
27.12.2016 18:12 4,1 C 75 % 1036,7 hPa 0,0 l/m 20,9 km/h (4 Bft) W-SW 247 0 min 0,000 mm 0,0 UV-I 0 W/m 0,1 C -4,7 C 33,8 km/h (5 Bft) 100,00 %
27.12.2016 18:14 4,1 C 76 % 1036,7 hPa 0,0 l/m 12,5 km/h (3 Bft) SW 234 0 min 0,000 mm 0,0 UV-I 0 W/m 0,3 C -0,6 C 19,3 km/h (3 Bft) 100,00 %
27.12.2016 18:16 4,1 C 76 % 1036,8 hPa 0,0 l/m 20,7 km/h (4 Bft) W 261 0 min 0,000 mm 0,0 UV-I 0 W/m 0,3 C -4,6 C 30,6 km/h (5 Bft) 100,00 %
27.12.2016 18:18 4,1 C 75 % 1036,9 hPa 0,0 l/m 24,5 km/h (4 Bft) W-SW 257 0 min 0,000 mm 0,0 UV-I 0 W/m 0,1 C -6,0 C 32,2 km/h (5 Bft) 100,00 %
27.12.2016 18:20 4,1 C 75 % 1036,9 hPa 0,0 l/m 22,7 km/h (4 Bft) SW 236 0 min 0,000 mm 0,0 UV-I 0 W/m 0,1 C -5,4 C 40,2 km/h (6 Bft) 100,00 %
27.12.2016 18:22 4,1 C 75 % 1037,0 hPa 0,0 l/m 26,5 km/h (4 Bft) W 266 0 min 0,000 mm 0,0 UV-I 0 W/m 0,1 C -6,6 C 43,5 km/h (6 Bft) 100,00 %
27.12.2016 18:24 4,1 C 75 % 1036,9 hPa 0,0 l/m 23,5 km/h (4 Bft) W 276 0 min 0,000 mm 0,0 UV-I 0 W/m 0,1 C -5,7 C 30,6 km/h (5 Bft) 100,00 %
27.12.2016 18:26 4,1 C 75 % 1036,9 hPa 0,0 l/m 22,9 km/h (4 Bft) SW 229 0 min 0,000 mm 0,0 UV-I 0 W/m 0,1 C -5,4 C 33,8 km/h (5 Bft) 95,74 %
27.12.2016 18:28 4,2 C 75 % 1036,9 hPa 0,0 l/m 26,5 km/h (4 Bft) W 261 0 min 0,000 mm 0,0 UV-I 0 W/m 0,2 C -6,5 C 35,4 km/h (5 Bft) 97,87 %
27.12.2016 18:30 4,2 C 75 % 1036,9 hPa 0,0 l/m 24,2 km/h (4 Bft) W 263 0 min 0,000 mm 0,0 UV-I 0 W/m 0,2 C -5,8 C 37,0 km/h (5 Bft) 100,00 %
27.12.2016 18:32 4,2 C 75 % 1037,0 hPa 0,0 l/m 19,6 km/h (3 Bft) SW 231 0 min 0,000 mm 0,0 UV-I 0 W/m 0,2 C -4,0 C 33,8 km/h (5 Bft) 100,00 %
27.12.2016 18:34 4,2 C 75 % 1037,0 hPa 0,0 l/m 23,1 km/h (4 Bft) W 263 0 min 0,000 mm 0,0 UV-I 0 W/m 0,2 C -5,4 C 38,6 km/h (5 Bft) 97,87 %
27.12.2016 18:36 4,2 C 75 % 1037,1 hPa 0,0 l/m 25,2 km/h (4 Bft) W 266 0 min 0,000 mm 0,0 UV-I 0 W/m 0,2 C -6,1 C 38,6 km/h (5 Bft) 100,00 %
27.12.2016 18:38 4,2 C 75 % 1037,1 hPa 0,0 l/m 16,0 km/h (3 Bft) W 263 0 min 0,000 mm 0,0 UV-I 0 W/m 0,2 C -2,4 C 24,1 km/h (4 Bft) 95,74 %
27.12.2016 18:40 4,2 C 75 % 1037,2 hPa 0,0 l/m 23,1 km/h (4 Bft) W 271 0 min 0,000 mm 0,0 UV-I 0 W/m 0,2 C -5,4 C 38,6 km/h (5 Bft) 100,00 %
27.12.2016 18:42 4,2 C 74 % 1037,2 hPa 0,0 l/m 26,5 km/h (4 Bft) W 259 0 min 0,000 mm 0,0 UV-I 0 W/m -0,0 C -6,5 C 51,5 km/h (7 Bft) 95,74 %
27.12.2016 18:44 4,2 C 74 % 1037,2 hPa 0,0 l/m 26,4 km/h (4 Bft) W-SW 246 0 min 0,000 mm 0,0 UV-I 0 W/m -0,0 C -6,5 C 41,8 km/h (6 Bft) 97,92 %
27.12.2016 18:46 4,2 C 74 % 1037,3 hPa 0,0 l/m 24,3 km/h (4 Bft) W-SW 256 0 min 0,000 mm 0,0 UV-I 0 W/m -0,0 C -5,8 C 43,5 km/h (6 Bft) 100,00 %
27.12.2016 18:48 4,2 C 74 % 1037,4 hPa 0,0 l/m 23,3 km/h (4 Bft) W-SW 250 0 min 0,000 mm 0,0 UV-I 0 W/m -0,0 C -5,5 C 33,8 km/h (5 Bft) 100,00 %
27.12.2016 18:50 4,2 C 74 % 1037,3 hPa 0,0 l/m 23,9 km/h (4 Bft) W-SW 258 0 min 0,000 mm 0,0 UV-I 0 W/m -0,0 C -5,7 C 45,1 km/h (6 Bft) 100,00 %
27.12.2016 18:52 4,2 C 74 % 1037,3 hPa 0,0 l/m 25,1 km/h (4 Bft) W 267 0 min 0,000 mm 0,0 UV-I 0 W/m -0,0 C -6,1 C 40,2 km/h (6 Bft) 97,87 %
27.12.2016 18:54 4,2 C 74 % 1037,4 hPa 0,0 l/m 19,0 km/h (3 Bft) W-SW 247 0 min 0,000 mm 0,0 UV-I 0 W/m -0,0 C -3,8 C 32,2 km/h (5 Bft) 100,00 %
27.12.2016 18:56 4,2 C 74 % 1037,3 hPa 0,0 l/m 19,9 km/h (4 Bft) W 264 0 min 0,000 mm 0,0 UV-I 0 W/m -0,0 C -4,2 C 30,6 km/h (5 Bft) 100,00 %
27.12.2016 18:58 4,2 C 74 % 1037,4 hPa 0,0 l/m 22,2 km/h (4 Bft) SW 229 0 min 0,000 mm 0,0 UV-I 0 W/m -0,0 C -5,1 C 33,8 km/h (5 Bft) 96,00 %
27.12.2016 19:00 4,2 C 74 % 1037,4 hPa 0,0 l/m 22,1 km/h (4 Bft) W 266 0 min 0,051 mm 0,0 UV-I 0 W/m -0,0 C -5,0 C 33,8 km/h (5 Bft) 100,00 %
27.12.2016 19:02 4,2 C 74 % 1037,4 hPa 0,0 l/m 20,2 km/h (4 Bft) W 264 0 min 0,000 mm 0,0 UV-I 0 W/m -0,0 C -4,3 C 30,6 km/h (5 Bft) 100,00 %
27.12.2016 19:04 4,2 C 75 % 1037,2 hPa 0,0 l/m 25,2 km/h (4 Bft) N-NW 331 0 min 0,000 mm 0,0 UV-I 0 W/m 0,2 C -6,1 C 37,0 km/h (5 Bft) 100,00 %
27.12.2016 19:06 4,2 C 74 % 1037,4 hPa 0,0 l/m 21,7 km/h (4 Bft) W 259 0 min 0,000 mm 0,0 UV-I 0 W/m -0,0 C -4,9 C 30,6 km/h (5 Bft) 100,00 %
27.12.2016 19:08 4,2 C 74 % 1037,5 hPa 0,0 l/m 21,1 km/h (4 Bft) W-SW 239 0 min 0,000 mm 0,0 UV-I 0 W/m -0,0 C -4,6 C 29,0 km/h (5 Bft) 97,87 %
27.12.2016 19:10 4,2 C 74 % 1037,5 hPa 0,0 l/m 24,2 km/h (4 Bft) W 260 0 min 0,000 mm 0,0 UV-I 0 W/m -0,0 C -5,8 C 41,8 km/h (6 Bft) 100,00 %
27.12.2016 19:12 4,2 C 74 % 1037,5 hPa 0,0 l/m 22,9 km/h (4 Bft) W 261 0 min 0,000 mm 0,0 UV-I 0 W/m -0,0 C -5,3 C 41,8 km/h (6 Bft) 97,87 %
27.12.2016 19:14 4,2 C 74 % 1037,5 hPa 0,0 l/m 24,9 km/h (4 Bft) W-SW 252 0 min 0,000 mm 0,0 UV-I 0 W/m -0,0 C -6,0 C 33,8 km/h (5 Bft) 100,00 %
27.12.2016 19:16 4,2 C 74 % 1037,5 hPa 0,0 l/m 23,8 km/h (4 Bft) W-NW 284 0 min 0,000 mm 0,0 UV-I 0 W/m -0,0 C -5,6 C 41,8 km/h (6 Bft) 100,00 %
27.12.2016 19:18 4,2 C 74 % 1037,4 hPa 0,0 l/m 30,6 km/h (5 Bft) W-SW 242 0 min 0,000 mm 0,0 UV-I 0 W/m -0,0 C -7,7 C 54,7 km/h (7 Bft) 97,87 %
27.12.2016 19:20 4,2 C 74 % 1037,6 hPa 0,0 l/m 21,9 km/h (4 Bft) W 265 0 min 0,000 mm 0,0 UV-I 0 W/m -0,0 C -4,9 C 32,2 km/h (5 Bft) 100,00 %
27.12.2016 19:22 4,2 C 74 % 1037,6 hPa 0,0 l/m 22,2 km/h (4 Bft) W 268 0 min 0,000 mm 0,0 UV-I 0 W/m -0,0 C -5,1 C 30,6 km/h (5 Bft) 97,22 %
27.12.2016 19:24 4,2 C 74 % 1037,6 hPa 0,0 l/m 17,8 km/h (3 Bft) S-SW 202 0 min 0,000 mm 0,0 UV-I 0 W/m -0,0 C -3,3 C 24,1 km/h (4 Bft) 97,87 %
27.12.2016 19:26 4,2 C 74 % 1037,6 hPa 0,0 l/m 24,7 km/h (4 Bft) W-SW 244 0 min 0,000 mm 0,0 UV-I 0 W/m -0,0 C -5,9 C 40,2 km/h (6 Bft) 96,00 %
27.12.2016 19:28 4,2 C 74 % 1037,5 hPa 0,0 l/m 25,5 km/h (4 Bft) W 267 0 min 0,000 mm 0,0 UV-I 0 W/m -0,0 C -6,2 C 45,1 km/h (6 Bft) 96,23 %
27.12.2016 19:30 4,2 C 74 % 1037,5 hPa 0,0 l/m 22,4 km/h (4 Bft) W-SW 245 0 min 0,000 mm 0,0 UV-I 0 W/m -0,0 C -5,1 C 33,8 km/h (5 Bft) 97,87 %
27.12.2016 19:32 4,2 C 74 % 1037,6 hPa 0,0 l/m 19,2 km/h (3 Bft) W-SW 243 0 min 0,000 mm 0,0 UV-I 0 W/m -0,0 C -3,9 C 27,4 km/h (4 Bft) 97,87 %
27.12.2016 19:34 4,2 C 74 % 1037,6 hPa 0,0 l/m 21,6 km/h (4 Bft) W-SW 252 0 min 0,000 mm 0,0 UV-I 0 W/m -0,0 C -4,8 C 30,6 km/h (5 Bft) 97,37 %
27.12.2016 19:36 4,2 C 75 % 1037,5 hPa 0,0 l/m 23,3 km/h (4 Bft) W 268 0 min 0,000 mm 0,0 UV-I 0 W/m 0,2 C -5,5 C 37,0 km/h (5 Bft) 97,87 %
27.12.2016 19:38 4,2 C 75 % 1037,5 hPa 0,0 l/m 19,9 km/h (4 Bft) W-SW 255 0 min 0,000 mm 0,0 UV-I 0 W/m 0,2 C -4,2 C 27,4 km/h (4 Bft) 97,87 %
27.12.2016 19:40 4,2 C 75 % 1037,4 hPa 0,0 l/m 24,0 km/h (4 Bft) W 263 0 min 0,000 mm 0,0 UV-I 0 W/m 0,2 C -5,7 C 33,8 km/h (5 Bft) 97,87 %
27.12.2016 19:42 4,2 C 75 % 1037,4 hPa 0,0 l/m 22,7 km/h (4 Bft) SW 228 0 min 0,000 mm 0,0 UV-I 0 W/m 0,2 C -5,2 C 30,6 km/h (5 Bft) 95,83 %
27.12.2016 19:44 4,2 C 75 % 1037,3 hPa 0,0 l/m 19,1 km/h (3 Bft) W-NW 282 0 min 0,000 mm 0,0 UV-I 0 W/m 0,2 C -3,8 C 30,6 km/h (5 Bft) 95,74 %
27.12.2016 19:46 4,2 C 75 % 1037,4 hPa 0,0 l/m 19,9 km/h (4 Bft) W 266 0 min 0,000 mm 0,0 UV-I 0 W/m 0,2 C -4,2 C 35,4 km/h (5 Bft) 97,87 %
27.12.2016 19:48 4,1 C 75 % 1037,2 hPa 0,0 l/m 24,0 km/h (4 Bft) W 265 0 min 0,000 mm 0,0 UV-I 0 W/m 0,1 C -5,8 C 32,2 km/h (5 Bft) 96,00 %
27.12.2016 19:50 4,2 C 75 % 1037,3 hPa 0,0 l/m 29,6 km/h (5 Bft) SW 232 0 min 0,000 mm 0,0 UV-I 0 W/m 0,2 C -7,4 C 46,7 km/h (6 Bft) 95,74 %
27.12.2016 19:52 4,2 C 75 % 1037,4 hPa 0,0 l/m 23,4 km/h (4 Bft) W 259 0 min 0,000 mm 0,0 UV-I 0 W/m 0,2 C -5,5 C 38,6 km/h (5 Bft) 95,74 %
27.12.2016 19:54 4,2 C 75 % 1037,3 hPa 0,0 l/m 21,4 km/h (4 Bft) W-SW 253 0 min 0,000 mm 0,0 UV-I 0 W/m 0,2 C -4,8 C 29,0 km/h (5 Bft) 95,74 %
27.12.2016 19:56 4,2 C 75 % 1037,5 hPa 0,0 l/m 21,5 km/h (4 Bft) W 265 0 min 0,000 mm 0,0 UV-I 0 W/m 0,2 C -4,8 C 40,2 km/h (6 Bft) 98,00 %
27.12.2016 19:58 4,2 C 75 % 1037,5 hPa 0,0 l/m 18,7 km/h (3 Bft) W 271 0 min 0,000 mm 0,0 UV-I 0 W/m 0,2 C -3,7 C 29,0 km/h (5 Bft) 97,44 %
27.12.2016 20:00 4,2 C 75 % 1037,5 hPa 0,0 l/m 19,0 km/h (3 Bft) W-SW 243 0 min 0,000 mm 0,0 UV-I 0 W/m 0,2 C -3,8 C 32,2 km/h (5 Bft) 96,00 %
27.12.2016 20:02 4,2 C 75 % 1037,4 hPa 0,0 l/m 22,6 km/h (4 Bft) W-SW 237 0 min 0,051 mm 0,0 UV-I 0 W/m 0,2 C -5,2 C 37,0 km/h (5 Bft) 100,00 %
27.12.2016 20:04 4,2 C 74 % 1037,5 hPa 0,0 l/m 27,0 km/h (4 Bft) W-NW 288 0 min 0,000 mm 0,0 UV-I 0 W/m -0,0 C -6,7 C 43,5 km/h (6 Bft) 100,00 %
27.12.2016 20:06 4,2 C 75 % 1037,5 hPa 0,0 l/m 17,7 km/h (3 Bft) W-NW 284 0 min 0,000 mm 0,0 UV-I 0 W/m 0,2 C -3,2 C 24,1 km/h (4 Bft) 100,00 %
27.12.2016 20:08 4,2 C 75 % 1037,5 hPa 0,0 l/m 21,7 km/h (4 Bft) W-SW 255 0 min 0,000 mm 0,0 UV-I 0 W/m 0,2 C -4,9 C 37,0 km/h (5 Bft) 97,87 %
27.12.2016 20:10 4,2 C 75 % 1037,5 hPa 0,0 l/m 19,9 km/h (4 Bft) W-NW 292 0 min 0,000 mm 0,0 UV-I 0 W/m 0,2 C -4,2 C 29,0 km/h (5 Bft) 100,00 %
27.12.2016 20:12 4,2 C 75 % 1037,4 hPa 0,0 l/m 19,1 km/h (3 Bft) W-SW 256 0 min 0,000 mm 0,0 UV-I 0 W/m 0,2 C -3,8 C 33,8 km/h (5 Bft) 97,87 %
27.12.2016 20:14 4,2 C 74 % 1037,5 hPa 0,0 l/m 23,4 km/h (4 Bft) W 261 0 min 0,000 mm 0,0 UV-I 0 W/m -0,0 C -5,5 C 35,4 km/h (5 Bft) 100,00 %
27.12.2016 20:16 4,2 C 75 % 1037,5 hPa 0,0 l/m 18,2 km/h (3 Bft) W-SW 258 0 min 0,000 mm 0,0 UV-I 0 W/m 0,2 C -3,4 C 32,2 km/h (5 Bft) 100,00 %
27.12.2016 20:18 4,2 C 75 % 1037,5 hPa 0,0 l/m 16,6 km/h (3 Bft) W-SW 239 0 min 0,000 mm 0,0 UV-I 0 W/m 0,2 C -2,7 C 24,1 km/h (4 Bft) 100,00 %
27.12.2016 20:20 4,2 C 75 % 1037,4 hPa 0,0 l/m 17,9 km/h (3 Bft) W 261 0 min 0,000 mm 0,0 UV-I 0 W/m 0,2 C -3,3 C 30,6 km/h (5 Bft) 100,00 %
27.12.2016 20:22 4,2 C 75 % 1037,5 hPa 0,0 l/m 17,9 km/h (3 Bft) W-NW 288 0 min 0,000 mm 0,0 UV-I 0 W/m 0,2 C -3,3 C 24,1 km/h (4 Bft) 100,00 %
27.12.2016 20:24 4,2 C 76 % 1037,5 hPa 0,0 l/m 19,1 km/h (3 Bft) W 263 0 min 0,000 mm 0,0 UV-I 0 W/m 0,4 C -3,8 C 40,2 km/h (6 Bft) 100,00 %
27.12.2016 20:26 4,2 C 76 % 1037,5 hPa 0,0 l/m 20,0 km/h (4 Bft) W 263 0 min 0,000 mm 0,0 UV-I 0 W/m 0,4 C -4,2 C 29,0 km/h (5 Bft) 100,00 %
27.12.2016 20:28 4,2 C 76 % 1037,5 hPa 0,0 l/m 17,8 km/h (3 Bft) W-SW 251 0 min 0,000 mm 0,0 UV-I 0 W/m 0,4 C -3,3 C 27,4 km/h (4 Bft) 97,87 %
27.12.2016 20:30 4,2 C 76 % 1037,5 hPa 0,0 l/m 19,0 km/h (3 Bft) W 266 0 min 0,000 mm 0,0 UV-I 0 W/m 0,4 C -3,8 C 32,2 km/h (5 Bft) 100,00 %
27.12.2016 20:32 4,2 C 76 % 1037,3 hPa 0,0 l/m 21,0 km/h (4 Bft) SW 227 0 min 0,000 mm 0,0 UV-I 0 W/m 0,4 C -4,6 C 32,2 km/h (5 Bft) 97,87 %
27.12.2016 20:34 4,2 C 76 % 1037,4 hPa 0,0 l/m 18,6 km/h (3 Bft) W-SW 244 0 min 0,000 mm 0,0 UV-I 0 W/m 0,4 C -3,6 C 24,1 km/h (4 Bft) 98,00 %
27.12.2016 20:36 4,2 C 76 % 1037,4 hPa 0,0 l/m 23,2 km/h (4 Bft) W-NW 282 0 min 0,000 mm 0,0 UV-I 0 W/m 0,4 C -5,4 C 30,6 km/h (5 Bft) 100,00 %
27.12.2016 20:38 4,1 C 76 % 1037,4 hPa 0,0 l/m 19,9 km/h (4 Bft) W-SW 252 0 min 0,000 mm 0,0 UV-I 0 W/m 0,3 C -4,3 C 33,8 km/h (5 Bft) 100,00 %
27.12.2016 20:40 4,2 C 75 % 1037,3 hPa 0,0 l/m 26,4 km/h (4 Bft) W 259 0 min 0,000 mm 0,0 UV-I 0 W/m 0,2 C -6,5 C 38,6 km/h (5 Bft) 96,23 %
27.12.2016 20:42 4,2 C 75 % 1037,2 hPa 0,0 l/m 20,2 km/h (4 Bft) W 279 0 min 0,000 mm 0,0 UV-I 0 W/m 0,2 C -4,3 C 32,2 km/h (5 Bft) 98,00 %
27.12.2016 20:44 4,2 C 75 % 1037,1 hPa 0,0 l/m 21,6 km/h (4 Bft) W 264 0 min 0,000 mm 0,0 UV-I 0 W/m 0,2 C -4,8 C 33,8 km/h (5 Bft) 97,87 %
27.12.2016 20:46 4,2 C 75 % 1037,2 hPa 0,0 l/m 17,3 km/h (3 Bft) SW 227 0 min 0,000 mm 0,0 UV-I 0 W/m 0,2 C -3,0 C 30,6 km/h (5 Bft) 98,00 %
27.12.2016 20:48 4,2 C 75 % 1037,2 hPa 0,0 l/m 22,6 km/h (4 Bft) W 267 0 min 0,000 mm 0,0 UV-I 0 W/m 0,2 C -5,2 C 40,2 km/h (6 Bft) 100,00 %
27.12.2016 20:50 4,2 C 75 % 1037,2 hPa 0,0 l/m 20,7 km/h (4 Bft) W-SW 246 0 min 0,000 mm 0,0 UV-I 0 W/m 0,2 C -4,5 C 29,0 km/h (5 Bft) 100,00 %
27.12.2016 20:52 4,2 C 75 % 1037,2 hPa 0,0 l/m 17,5 km/h (3 Bft) W-NW 284 0 min 0,000 mm 0,0 UV-I 0 W/m 0,2 C -3,1 C 24,1 km/h (4 Bft) 100,00 %
27.12.2016 20:54 4,2 C 75 % 1037,2 hPa 0,0 l/m 11,7 km/h (2 Bft) W 267 0 min 0,000 mm 0,0 UV-I 0 W/m 0,2 C 0,0 C 16,1 km/h (3 Bft) 98,00 %
27.12.2016 20:56 4,2 C 75 % 1037,3 hPa 0,0 l/m 18,4 km/h (3 Bft) W 273 0 min 0,000 mm 0,0 UV-I 0 W/m 0,2 C -3,5 C 30,6 km/h (5 Bft) 100,00 %
27.12.2016 20:58 4,2 C 75 % 1037,3 hPa 0,0 l/m 21,1 km/h (4 Bft) W-SW 256 0 min 0,000 mm 0,0 UV-I 0 W/m 0,2 C -4,6 C 27,4 km/h (4 Bft) 100,00 %
27.12.2016 21:00 4,2 C 75 % 1037,2 hPa 0,0 l/m 23,8 km/h (4 Bft) W-SW 254 0 min 0,000 mm 0,0 UV-I 0 W/m 0,2 C -5,6 C 38,6 km/h (5 Bft) 98,00 %
27.12.2016 21:02 4,2 C 75 % 1037,3 hPa 0,0 l/m 19,2 km/h (3 Bft) W-NW 288 0 min 0,050 mm 0,0 UV-I 0 W/m 0,2 C -3,9 C 32,2 km/h (5 Bft) 100,00 %
27.12.2016 21:04 4,2 C 75 % 1037,3 hPa 0,0 l/m 16,9 km/h (3 Bft) W-NW 287 0 min 0,000 mm 0,0 UV-I 0 W/m 0,2 C -2,8 C 24,1 km/h (4 Bft) 100,00 %
27.12.2016 21:06 4,2 C 75 % 1037,2 hPa 0,0 l/m 22,7 km/h (4 Bft) W-SW 245 0 min 0,000 mm 0,0 UV-I 0 W/m 0,2 C -5,2 C 38,6 km/h (5 Bft) 100,00 %
27.12.2016 21:08 4,3 C 75 % 1037,2 hPa 0,0 l/m 21,5 km/h (4 Bft) W 261 0 min 0,000 mm 0,0 UV-I 0 W/m 0,3 C -4,7 C 41,8 km/h (6 Bft) 97,87 %
27.12.2016 21:10 4,3 C 75 % 1037,3 hPa 0,0 l/m 21,9 km/h (4 Bft) SW 231 0 min 0,000 mm 0,0 UV-I 0 W/m 0,3 C -4,8 C 32,2 km/h (5 Bft) 100,00 %
27.12.2016 21:12 4,3 C 75 % 1037,2 hPa 0,0 l/m 19,9 km/h (4 Bft) W-SW 242 0 min 0,000 mm 0,0 UV-I 0 W/m 0,3 C -4,0 C 29,0 km/h (5 Bft) 100,00 %
27.12.2016 21:14 4,3 C 75 % 1037,3 hPa 0,0 l/m 21,1 km/h (4 Bft) W-SW 258 0 min 0,000 mm 0,0 UV-I 0 W/m 0,3 C -4,5 C 27,4 km/h (4 Bft) 97,87 %
27.12.2016 21:16 4,3 C 75 % 1037,3 hPa 0,0 l/m 20,0 km/h (4 Bft) W 268 0 min 0,000 mm 0,0 UV-I 0 W/m 0,3 C -4,1 C 30,6 km/h (5 Bft) 95,74 %
27.12.2016 21:18 4,3 C 75 % 1037,3 hPa 0,0 l/m 17,6 km/h (3 Bft) W 259 0 min 0,000 mm 0,0 UV-I 0 W/m 0,3 C -3,0 C 32,2 km/h (5 Bft) 100,00 %
27.12.2016 21:20 4,2 C 75 % 1037,3 hPa 0,0 l/m 22,4 km/h (4 Bft) W 269 0 min 0,000 mm 0,0 UV-I 0 W/m 0,2 C -5,1 C 32,2 km/h (5 Bft) 100,00 %
27.12.2016 21:22 4,3 C 75 % 1037,4 hPa 0,0 l/m 17,8 km/h (3 Bft) W-SW 250 0 min 0,000 mm 0,0 UV-I 0 W/m 0,3 C -3,1 C 25,7 km/h (4 Bft) 100,00 %
27.12.2016 21:24 4,2 C 75 % 1037,5 hPa 0,0 l/m 18,2 km/h (3 Bft) SW 227 0 min 0,000 mm 0,0 UV-I 0 W/m 0,2 C -3,4 C 27,4 km/h (4 Bft) 100,00 %
27.12.2016 21:26 4,2 C 76 % 1037,4 hPa 0,0 l/m 16,9 km/h (3 Bft) W-SW 255 0 min 0,000 mm 0,0 UV-I 0 W/m 0,4 C -2,8 C 25,7 km/h (4 Bft) 100,00 %
27.12.2016 21:28 4,2 C 76 % 1037,4 hPa 0,0 l/m 23,9 km/h (4 Bft) W-NW 289 0 min 0,000 mm 0,0 UV-I 0 W/m 0,4 C -5,7 C 37,0 km/h (5 Bft) 100,00 %
27.12.2016 21:30 4,2 C 76 % 1037,3 hPa 0,0 l/m 21,1 km/h (4 Bft) W-SW 247 0 min 0,000 mm 0,0 UV-I 0 W/m 0,4 C -4,6 C 33,8 km/h (5 Bft) 97,87 %
27.12.2016 21:32 4,2 C 76 % 1037,4 hPa 0,0 l/m 24,0 km/h (4 Bft) W-SW 244 0 min 0,000 mm 0,0 UV-I 0 W/m 0,4 C -5,7 C 32,2 km/h (5 Bft) 95,74 %
27.12.2016 21:34 4,2 C 76 % 1037,3 hPa 0,0 l/m 24,6 km/h (4 Bft) W 267 0 min 0,000 mm 0,0 UV-I 0 W/m 0,4 C -5,9 C 45,1 km/h (6 Bft) 97,87 %
27.12.2016 21:36 4,2 C 76 % 1037,4 hPa 0,0 l/m 20,5 km/h (4 Bft) NW 318 0 min 0,000 mm 0,0 UV-I 0 W/m 0,4 C -4,4 C 30,6 km/h (5 Bft) 95,74 %
27.12.2016 21:38 4,2 C 75 % 1037,3 hPa 0,0 l/m 23,2 km/h (4 Bft) W 274 0 min 0,000 mm 0,0 UV-I 0 W/m 0,2 C -5,4 C 43,5 km/h (6 Bft) 95,74 %
27.12.2016 21:40 4,2 C 75 % 1037,2 hPa 0,0 l/m 25,9 km/h (4 Bft) W-SW 257 0 min 0,000 mm 0,0 UV-I 0 W/m 0,2 C -6,3 C 40,2 km/h (6 Bft) 95,74 %
27.12.2016 21:42 4,2 C 75 % 1037,2 hPa 0,0 l/m 25,6 km/h (4 Bft) W 265 0 min 0,000 mm 0,0 UV-I 0 W/m 0,2 C -6,2 C 43,5 km/h (6 Bft) 94,74 %
27.12.2016 21:44 4,2 C 76 % 1037,2 hPa 0,0 l/m 20,9 km/h (4 Bft) W-SW 243 0 min 0,000 mm 0,0 UV-I 0 W/m 0,4 C -4,6 C 35,4 km/h (5 Bft) 97,87 %
27.12.2016 21:46 4,2 C 75 % 1037,2 hPa 0,0 l/m 35,3 km/h (5 Bft) W-NW 284 0 min 0,000 mm 0,0 UV-I 0 W/m 0,2 C -8,8 C 48,3 km/h (6 Bft) 95,74 %
27.12.2016 21:48 4,2 C 75 % 1037,2 hPa 0,0 l/m 28,8 km/h (4 Bft) W-SW 245 0 min 0,000 mm 0,0 UV-I 0 W/m 0,2 C -7,2 C 41,8 km/h (6 Bft) 97,87 %
27.12.2016 21:50 4,2 C 75 % 1037,3 hPa 0,0 l/m 28,2 km/h (4 Bft) W-SW 247 0 min 0,000 mm 0,0 UV-I 0 W/m 0,2 C -7,0 C 53,1 km/h (7 Bft) 97,87 %
27.12.2016 21:52 4,2 C 76 % 1037,1 hPa 0,0 l/m 29,2 km/h (5 Bft) W 268 0 min 0,000 mm 0,0 UV-I 0 W/m 0,4 C -7,3 C 46,7 km/h (6 Bft) 95,74 %
27.12.2016 21:54 4,2 C 76 % 1037,1 hPa 0,0 l/m 28,0 km/h (4 Bft) W-NW 284 0 min 0,000 mm 0,0 UV-I 0 W/m 0,4 C -6,9 C 45,1 km/h (6 Bft) 97,87 %
27.12.2016 21:56 4,1 C 76 % 1037,1 hPa 0,0 l/m 26,6 km/h (4 Bft) W-NW 284 0 min 0,000 mm 0,0 UV-I 0 W/m 0,3 C -6,7 C 38,6 km/h (5 Bft) 97,96 %
27.12.2016 21:58 4,1 C 76 % 1037,1 hPa 0,0 l/m 20,4 km/h (4 Bft) W 261 0 min 0,000 mm 0,0 UV-I 0 W/m 0,3 C -4,5 C 30,6 km/h (5 Bft) 93,75 %
27.12.2016 22:00 4,1 C 76 % 1037,2 hPa 0,0 l/m 18,9 km/h (3 Bft) W-SW 244 0 min 0,000 mm 0,0 UV-I 0 W/m 0,3 C -3,9 C 27,4 km/h (4 Bft) 97,87 %
27.12.2016 22:02 4,1 C 76 % 1037,2 hPa 0,0 l/m 21,7 km/h (4 Bft) W 261 0 min 0,051 mm 0,0 UV-I 0 W/m 0,3 C -5,0 C 32,2 km/h (5 Bft) 96,00 %
27.12.2016 22:04 4,1 C 76 % 1037,3 hPa 0,0 l/m 19,3 km/h (3 Bft) W 260 0 min 0,000 mm 0,0 UV-I 0 W/m 0,3 C -4,0 C 37,0 km/h (5 Bft) 97,87 %
27.12.2016 22:06 4,1 C 77 % 1037,2 hPa 0,0 l/m 25,0 km/h (4 Bft) SW 229 0 min 0,000 mm 0,0 UV-I 0 W/m 0,4 C -6,2 C 46,7 km/h (6 Bft) 95,92 %
27.12.2016 22:08 4,1 C 77 % 1037,3 hPa 0,0 l/m 25,8 km/h (4 Bft) W-SW 249 0 min 0,000 mm 0,0 UV-I 0 W/m 0,4 C -6,4 C 43,5 km/h (6 Bft) 100,00 %
27.12.2016 22:10 4,1 C 77 % 1037,3 hPa 0,0 l/m 22,9 km/h (4 Bft) SW 236 0 min 0,000 mm 0,0 UV-I 0 W/m 0,4 C -5,4 C 38,6 km/h (5 Bft) 100,00 %
27.12.2016 22:12 4,0 C 77 % 1037,3 hPa 0,0 l/m 21,3 km/h (4 Bft) W 259 0 min 0,000 mm 0,0 UV-I 0 W/m 0,3 C -5,0 C 33,8 km/h (5 Bft) 100,00 %
27.12.2016 22:14 4,0 C 77 % 1037,2 hPa 0,0 l/m 26,8 km/h (4 Bft) W-SW 253 0 min 0,000 mm 0,0 UV-I 0 W/m 0,3 C -6,9 C 40,2 km/h (6 Bft) 97,87 %
27.12.2016 22:16 4,0 C 77 % 1037,3 hPa 0,0 l/m 20,3 km/h (4 Bft) W 271 0 min 0,000 mm 0,0 UV-I 0 W/m 0,3 C -4,6 C 25,7 km/h (4 Bft) 100,00 %
27.12.2016 22:18 3,9 C 77 % 1037,2 hPa 0,0 l/m 24,1 km/h (4 Bft) W 274 0 min 0,000 mm 0,0 UV-I 0 W/m 0,2 C -6,1 C 35,4 km/h (5 Bft) 100,00 %
27.12.2016 22:20 3,9 C 78 % 1037,1 hPa 0,0 l/m 21,8 km/h (4 Bft) W 272 0 min 0,000 mm 0,0 UV-I 0 W/m 0,4 C -5,3 C 30,6 km/h (5 Bft) 100,00 %
27.12.2016 22:22 3,9 C 78 % 1037,1 hPa 0,0 l/m 26,2 km/h (4 Bft) W-SW 256 0 min 0,000 mm 0,0 UV-I 0 W/m 0,4 C -6,8 C 41,8 km/h (6 Bft) 100,00 %
27.12.2016 22:24 3,9 C 78 % 1037,2 hPa 0,0 l/m 25,4 km/h (4 Bft) W-SW 240 0 min 0,000 mm 0,0 UV-I 0 W/m 0,4 C -6,6 C 37,0 km/h (5 Bft) 97,87 %
27.12.2016 22:26 3,9 C 78 % 1037,1 hPa 0,0 l/m 29,7 km/h (5 Bft) W 262 0 min 0,000 mm 0,0 UV-I 0 W/m 0,4 C -7,8 C 46,7 km/h (6 Bft) 100,00 %
27.12.2016 22:28 3,9 C 78 % 1037,1 hPa 0,0 l/m 27,8 km/h (4 Bft) W 279 0 min 0,000 mm 0,0 UV-I 0 W/m 0,4 C -7,3 C 41,8 km/h (6 Bft) 97,87 %
27.12.2016 22:30 3,9 C 78 % 1037,1 hPa 0,0 l/m 21,5 km/h (4 Bft) W 263 0 min 0,000 mm 0,0 UV-I 0 W/m 0,4 C -5,2 C 32,2 km/h (5 Bft) 97,87 %
27.12.2016 22:32 3,9 C 78 % 1037,4 hPa 0,0 l/m 25,7 km/h (4 Bft) W 280 0 min 0,000 mm 0,0 UV-I 0 W/m 0,4 C -6,7 C 35,4 km/h (5 Bft) 100,00 %
27.12.2016 22:34 3,9 C 78 % 1037,5 hPa 0,0 l/m 28,6 km/h (4 Bft) W 281 0 min 0,000 mm 0,0 UV-I 0 W/m 0,4 C -7,5 C 46,7 km/h (6 Bft) 100,00 %
27.12.2016 22:36 3,9 C 78 % 1037,5 hPa 0,0 l/m 29,7 km/h (5 Bft) W-NW 288 0 min 0,000 mm 0,0 UV-I 0 W/m 0,4 C -7,8 C 51,5 km/h (7 Bft) 100,00 %
27.12.2016 22:38 3,9 C 78 % 1037,4 hPa 0,0 l/m 21,8 km/h (4 Bft) W-SW 240 0 min 0,000 mm 0,0 UV-I 0 W/m 0,4 C -5,3 C 35,4 km/h (5 Bft) 98,00 %
27.12.2016 22:40 3,9 C 78 % 1037,5 hPa 0,0 l/m 25,7 km/h (4 Bft) W-SW 251 0 min 0,000 mm 0,0 UV-I 0 W/m 0,4 C -6,7 C 46,7 km/h (6 Bft) 100,00 %
27.12.2016 22:42 3,9 C 78 % 1037,5 hPa 0,0 l/m 22,9 km/h (4 Bft) W 267 0 min 0,000 mm 0,0 UV-I 0 W/m 0,4 C -5,7 C 35,4 km/h (5 Bft) 97,87 %
27.12.2016 22:44 3,9 C 78 % 1037,5 hPa 0,0 l/m 17,6 km/h (3 Bft) W 265 0 min 0,000 mm 0,0 UV-I 0 W/m 0,4 C -3,5 C 22,5 km/h (4 Bft) 97,92 %
27.12.2016 22:46 3,9 C 78 % 1037,4 hPa 0,0 l/m 21,2 km/h (4 Bft) W-SW 253 0 min 0,000 mm 0,0 UV-I 0 W/m 0,4 C -5,1 C 33,8 km/h (5 Bft) 100,00 %
27.12.2016 22:48 3,9 C 78 % 1037,5 hPa 0,0 l/m 25,6 km/h (4 Bft) W-NW 295 0 min 0,000 mm 0,0 UV-I 0 W/m 0,4 C -6,6 C 41,8 km/h (6 Bft) 95,74 %
27.12.2016 22:50 3,9 C 78 % 1037,5 hPa 0,0 l/m 21,1 km/h (4 Bft) W 261 0 min 0,000 mm 0,0 UV-I 0 W/m 0,4 C -5,0 C 40,2 km/h (6 Bft) 100,00 %
27.12.2016 22:52 3,9 C 78 % 1037,5 hPa 0,0 l/m 23,4 km/h (4 Bft) W-SW 242 0 min 0,000 mm 0,0 UV-I 0 W/m 0,4 C -5,9 C 38,6 km/h (5 Bft) 97,87 %
27.12.2016 22:54 3,9 C 79 % 1037,5 hPa 0,0 l/m 20,4 km/h (4 Bft) W 265 0 min 0,000 mm 0,0 UV-I 0 W/m 0,6 C -4,8 C 32,2 km/h (5 Bft) 100,00 %
27.12.2016 22:56 3,9 C 79 % 1037,6 hPa 0,0 l/m 19,8 km/h (3 Bft) W-SW 254 0 min 0,000 mm 0,0 UV-I 0 W/m 0,6 C -4,5 C 29,0 km/h (5 Bft) 100,00 %
27.12.2016 22:58 3,9 C 79 % 1037,5 hPa 0,0 l/m 18,6 km/h (3 Bft) W-NW 290 0 min 0,000 mm 0,0 UV-I 0 W/m 0,6 C -4,0 C 27,4 km/h (4 Bft) 97,87 %
27.12.2016 23:00 3,9 C 79 % 1037,5 hPa 0,0 l/m 26,9 km/h (4 Bft) W-NW 284 0 min 0,000 mm 0,0 UV-I 0 W/m 0,6 C -7,0 C 56,3 km/h (7 Bft) 100,00 %
27.12.2016 23:02 3,9 C 79 % 1037,5 hPa 0,0 l/m 22,7 km/h (4 Bft) W-SW 254 0 min 0,051 mm 0,0 UV-I 0 W/m 0,6 C -5,6 C 32,2 km/h (5 Bft) 100,00 %
27.12.2016 23:04 3,9 C 80 % 1037,4 hPa 0,0 l/m 23,5 km/h (4 Bft) W-SW 258 0 min 0,000 mm 0,0 UV-I 0 W/m 0,8 C -5,9 C 43,5 km/h (6 Bft) 93,62 %
27.12.2016 23:06 3,9 C 80 % 1037,5 hPa 0,0 l/m 16,9 km/h (3 Bft) W-SW 248 0 min 0,000 mm 0,0 UV-I 0 W/m 0,8 C -3,2 C 35,4 km/h (5 Bft) 100,00 %
27.12.2016 23:08 3,9 C 80 % 1037,5 hPa 0,0 l/m 16,9 km/h (3 Bft) W 263 0 min 0,000 mm 0,0 UV-I 0 W/m 0,8 C -3,2 C 33,8 km/h (5 Bft) 96,00 %
27.12.2016 23:10 3,8 C 80 % 1037,6 hPa 0,0 l/m 21,5 km/h (4 Bft) SW 236 0 min 0,000 mm 0,0 UV-I 0 W/m 0,7 C -5,3 C 37,0 km/h (5 Bft) 100,00 %
27.12.2016 23:12 3,8 C 81 % 1037,7 hPa 0,0 l/m 19,8 km/h (3 Bft) W 275 0 min 0,000 mm 0,0 UV-I 0 W/m 0,8 C -4,6 C 29,0 km/h (5 Bft) 97,87 %
27.12.2016 23:14 3,8 C 81 % 1037,6 hPa 0,0 l/m 21,6 km/h (4 Bft) W-SW 255 0 min 0,000 mm 0,0 UV-I 0 W/m 0,8 C -5,4 C 33,8 km/h (5 Bft) 100,00 %
27.12.2016 23:16 3,8 C 81 % 1037,6 hPa 0,0 l/m 20,0 km/h (4 Bft) W 261 0 min 0,000 mm 0,0 UV-I 0 W/m 0,8 C -4,7 C 29,0 km/h (5 Bft) 100,00 %
27.12.2016 23:18 3,8 C 80 % 1037,5 hPa 0,0 l/m 19,9 km/h (4 Bft) SW 230 0 min 0,000 mm 0,0 UV-I 0 W/m 0,7 C -4,7 C 30,6 km/h (5 Bft) 100,00 %
27.12.2016 23:20 3,8 C 80 % 1037,4 hPa 0,0 l/m 21,4 km/h (4 Bft) W-SW 256 0 min 0,000 mm 0,0 UV-I 0 W/m 0,7 C -5,3 C 40,2 km/h (6 Bft) 100,00 %
27.12.2016 23:22 3,8 C 80 % 1037,5 hPa 0,0 l/m 22,6 km/h (4 Bft) W 259 0 min 0,000 mm 0,0 UV-I 0 W/m 0,7 C -5,7 C 32,2 km/h (5 Bft) 97,87 %
27.12.2016 23:24 3,8 C 80 % 1037,4 hPa 0,0 l/m 29,2 km/h (5 Bft) W-SW 250 0 min 0,000 mm 0,0 UV-I 0 W/m 0,7 C -7,8 C 43,5 km/h (6 Bft) 95,74 %
27.12.2016 23:26 3,9 C 81 % 1037,3 hPa 0,0 l/m 29,3 km/h (5 Bft) W 277 0 min 0,000 mm 0,0 UV-I 0 W/m 0,9 C -7,7 C 43,5 km/h (6 Bft) 98,00 %
27.12.2016 23:28 3,9 C 81 % 1037,5 hPa 0,0 l/m 22,3 km/h (4 Bft) W-SW 248 0 min 0,000 mm 0,0 UV-I 0 W/m 0,9 C -5,5 C 29,0 km/h (5 Bft) 100,00 %
27.12.2016 23:30 3,9 C 81 % 1037,5 hPa 0,0 l/m 26,8 km/h (4 Bft) W-SW 244 0 min 0,000 mm 0,0 UV-I 0 W/m 0,9 C -7,0 C 41,8 km/h (6 Bft) 100,00 %
27.12.2016 23:32 3,8 C 81 % 1037,5 hPa 0,0 l/m 23,0 km/h (4 Bft) W 259 0 min 0,000 mm 0,0 UV-I 0 W/m 0,8 C -5,9 C 33,8 km/h (5 Bft) 100,00 %
27.12.2016 23:34 3,8 C 82 % 1037,5 hPa 0,0 l/m 23,9 km/h (4 Bft) SW 234 0 min 0,000 mm 0,0 UV-I 0 W/m 1,0 C -6,2 C 38,6 km/h (5 Bft) 97,87 %
27.12.2016 23:36 3,8 C 82 % 1037,5 hPa 0,0 l/m 22,1 km/h (4 Bft) W 276 0 min 0,000 mm 0,0 UV-I 0 W/m 1,0 C -5,5 C 32,2 km/h (5 Bft) 98,00 %
27.12.2016 23:38 3,8 C 82 % 1037,5 hPa 0,0 l/m 24,4 km/h (4 Bft) W 261 0 min 0,000 mm 0,0 UV-I 0 W/m 1,0 C -6,4 C 35,4 km/h (5 Bft) 97,87 %
27.12.2016 23:40 3,8 C 82 % 1037,5 hPa 0,0 l/m 23,8 km/h (4 Bft) W-SW 238 0 min 0,000 mm 0,0 UV-I 0 W/m 1,0 C -6,2 C 40,2 km/h (6 Bft) 95,74 %
27.12.2016 23:42 3,8 C 82 % 1037,4 hPa 0,0 l/m 21,5 km/h (4 Bft) W-SW 257 0 min 0,000 mm 0,0 UV-I 0 W/m 1,0 C -5,3 C 40,2 km/h (6 Bft) 97,14 %
27.12.2016 23:44 3,8 C 82 % 1037,5 hPa 0,0 l/m 17,3 km/h (3 Bft) W 272 0 min 0,000 mm 0,0 UV-I 0 W/m 1,0 C -3,5 C 22,5 km/h (4 Bft) 96,00 %
27.12.2016 23:46 3,8 C 82 % 1037,4 hPa 0,0 l/m 18,7 km/h (3 Bft) W 259 0 min 0,000 mm 0,0 UV-I 0 W/m 1,0 C -4,2 C 24,1 km/h (4 Bft) 93,62 %
27.12.2016 23:48 3,8 C 82 % 1037,4 hPa 0,0 l/m 16,1 km/h (3 Bft) W 269 0 min 0,000 mm 0,0 UV-I 0 W/m 1,0 C -2,9 C 20,9 km/h (4 Bft) 97,87 %
27.12.2016 23:50 3,8 C 82 % 1037,4 hPa 0,0 l/m 22,7 km/h (4 Bft) W-SW 250 0 min 0,000 mm 0,0 UV-I 0 W/m 1,0 C -5,8 C 33,8 km/h (5 Bft) 97,87 %
27.12.2016 23:52 3,8 C 82 % 1037,4 hPa 0,0 l/m 18,0 km/h (3 Bft) W-SW 254 0 min 0,000 mm 0,0 UV-I 0 W/m 1,0 C -3,9 C 33,8 km/h (5 Bft) 98,00 %
27.12.2016 23:54 3,8 C 83 % 1037,4 hPa 0,0 l/m 23,7 km/h (4 Bft) W 278 0 min 0,000 mm 0,0 UV-I 0 W/m 1,2 C -6,1 C 35,4 km/h (5 Bft) 95,74 %
27.12.2016 23:56 3,8 C 83 % 1037,4 hPa 0,0 l/m 21,3 km/h (4 Bft) W 264 0 min 0,000 mm 0,0 UV-I 0 W/m 1,2 C -5,2 C 29,0 km/h (5 Bft) 97,87 %
27.12.2016 23:58 3,8 C 83 % 1037,3 hPa 0,0 l/m 16,9 km/h (3 Bft) W 263 0 min 0,000 mm 0,0 UV-I 0 W/m 1,2 C -3,3 C 22,5 km/h (4 Bft) 97,87 %
_ Min-Zeit 07:44 18:42 00:02 - 01:02 - - - - - - 08:08 08:46 01:00 04:58
Minimum _ 2,3 C 74 % 1031,0 hPa - 6,4 km/h (2 Bft) - - - - - - -1,1 C -10,3 C 11,3 km/h (2 Bft) 89,36 %
_ Max-Zeit 00:00 01:10 23:12 00:00 21:46 - - 08:06 12:00 00:00 09:38 00:00 01:02 23:00 00:00
Maximum _ 5,8 C 85 % 1037,7 hPa 0,0 l/m 35,3 km/h
W-NW (5 Bft)
- - 2 min 0,101 mm 0,0 UV-I 258 W/m 3,0 C 4,6 C 56,3 km/h
W (7 Bft)
100,00 %
Durchschnitt _ 3,7 C 78 % 1035,2 hPa #0,0 l/m 20,5 km/h (4 Bft) W-SW - #1:20 h #1,143 mm 0,0 UV-I 66 W/m 0,2 C -4,8 C 32,1 km/h (5 Bft) 98,34 %